FJI891 KDFW-NFFN

Flight info

Callsign FJI891
Flight time N/A
Altitude 36000
Route WSTEX2 DOSXX DCT FST DCT ALKEM DCT CUU UJ2 LTO DCT 24N116W 22N120W 20N124W/N0492F380 18N128W 15N134W 12N139W 09N144W 06N149W/N0485F400 02N155W 02S160W 05S164W 08S168W DCT PUPIS DCT 1151S17400W DCT HOI B577 NN
Aircraft A359/H-SDE2E3GHIJ1J3J4J5LM1ORWXY/LB1D1

Departure

Time N/A
Airport Dallas Fort Worth International Airport (KDFW)

Arrival

Time 2026-05-08 17:34
Airport Nadi International Airport (NFFN)
Time Latitude Longitude Altitude Speed Heading
2026-05-08 05:01 32.19371 -100.38380 36005 ft 392 kts 241°
2026-05-08 05:02 32.16744 -100.44052 36004 ft 393 kts 241°
2026-05-08 05:02 32.14132 -100.49686 36005 ft 393 kts 241°
2026-05-08 05:03 32.11494 -100.55367 36003 ft 393 kts 241°
2026-05-08 05:03 32.08879 -100.60989 36005 ft 393 kts 241°
2026-05-08 05:04 32.06237 -100.66658 36004 ft 394 kts 240°
2026-05-08 05:04 32.03599 -100.72311 36001 ft 394 kts 240°
2026-05-08 05:05 32.00956 -100.77967 36001 ft 394 kts 240°
2026-05-08 05:05 31.98326 -100.83585 36002 ft 394 kts 240°
2026-05-08 05:06 31.95680 -100.89232 35999 ft 394 kts 240°
2026-05-08 05:06 31.93030 -100.94880 35998 ft 394 kts 240°
2026-05-08 05:07 31.90386 -101.00501 35996 ft 394 kts 240°
2026-05-08 05:07 31.87722 -101.06158 35995 ft 394 kts 240°
2026-05-08 05:08 31.85076 -101.11767 35993 ft 394 kts 240°
2026-05-08 05:08 31.82410 -101.17412 35998 ft 394 kts 240°
2026-05-08 05:09 31.79751 -101.23034 35998 ft 394 kts 240°
2026-05-08 05:09 31.77097 -101.28636 35997 ft 394 kts 240°
2026-05-08 05:10 31.73082 -101.37095 35998 ft 396 kts 240°
2026-05-08 05:11 31.70397 -101.42741 36000 ft 397 kts 240°
2026-05-08 05:11 31.67706 -101.48394 35997 ft 397 kts 240°
2026-05-08 05:12 31.65009 -101.54048 35999 ft 397 kts 240°
2026-05-08 05:12 31.62304 -101.59711 35998 ft 397 kts 240°
2026-05-08 05:13 31.59600 -101.65362 35997 ft 397 kts 240°
2026-05-08 05:13 31.56912 -101.70976 35997 ft 397 kts 240°
2026-05-08 05:14 31.54199 -101.76629 36000 ft 398 kts 240°
2026-05-08 05:14 31.51487 -101.82271 35990 ft 398 kts 239°
2026-05-08 05:15 31.48775 -101.87907 36000 ft 397 kts 239°
2026-05-08 05:15 31.46059 -101.93542 35996 ft 396 kts 239°
2026-05-08 05:16 31.43350 -101.99156 35996 ft 396 kts 239°
2026-05-08 05:16 31.40628 -102.04786 36008 ft 397 kts 239°
2026-05-08 05:17 31.37919 -102.10384 35996 ft 397 kts 239°
2026-05-08 05:17 31.35192 -102.16007 35996 ft 397 kts 239°
2026-05-08 05:18 31.32466 -102.21620 35992 ft 397 kts 239°
2026-05-08 05:18 31.30196 -102.26288 35990 ft 397 kts 239°
2026-05-08 05:19 31.27021 -102.32808 35987 ft 397 kts 239°
2026-05-08 05:19 31.24289 -102.38411 35983 ft 397 kts 239°
2026-05-08 05:20 31.22006 -102.43086 35991 ft 397 kts 239°
2026-05-08 05:20 31.19266 -102.48689 35971 ft 397 kts 239°
2026-05-08 05:21 31.16524 -102.54288 35975 ft 397 kts 239°
2026-05-08 05:21 31.13780 -102.59882 35974 ft 397 kts 239°
2026-05-08 05:22 31.11035 -102.65472 35963 ft 397 kts 239°
2026-05-08 05:22 31.08287 -102.71059 35964 ft 397 kts 239°
2026-05-08 05:23 31.05533 -102.76649 35967 ft 397 kts 239°
2026-05-08 05:23 31.02797 -102.82194 35956 ft 397 kts 239°
2026-05-08 05:24 31.00022 -102.87813 35957 ft 397 kts 239°
2026-05-08 05:24 30.97278 -102.93359 35949 ft 397 kts 239°
2026-05-08 05:25 30.94293 -102.98770 35954 ft 397 kts 232°
2026-05-08 05:25 30.92597 -103.01308 36056 ft 397 kts 232°
2026-05-08 05:25 30.90874 -103.03815 36051 ft 397 kts 231°
2026-05-08 05:26 30.87384 -103.08807 36029 ft 397 kts 231°
2026-05-08 05:26 30.83889 -103.13786 35962 ft 397 kts 231°
2026-05-08 05:27 30.80396 -103.18771 35950 ft 397 kts 231°
2026-05-08 05:27 30.76928 -103.23725 35943 ft 397 kts 231°
2026-05-08 05:28 30.73440 -103.28703 35941 ft 397 kts 231°
2026-05-08 05:28 30.69941 -103.33689 35949 ft 397 kts 231°
2026-05-08 05:29 30.66447 -103.38662 35947 ft 397 kts 231°
2026-05-08 05:29 30.62945 -103.43639 35952 ft 397 kts 231°
2026-05-08 05:30 30.59449 -103.48601 35951 ft 397 kts 231°
2026-05-08 05:30 30.55970 -103.53534 35964 ft 398 kts 231°
2026-05-08 05:31 30.52463 -103.58499 35931 ft 398 kts 231°
2026-05-08 05:31 30.48957 -103.63456 35964 ft 397 kts 231°
2026-05-08 05:32 30.45454 -103.68405 35992 ft 397 kts 231°
2026-05-08 05:32 30.41945 -103.73355 36015 ft 397 kts 231°
2026-05-08 05:33 30.38437 -103.78297 36041 ft 397 kts 231°
2026-05-08 05:33 30.34927 -103.83238 36063 ft 397 kts 231°
2026-05-08 05:34 30.31418 -103.88173 36086 ft 397 kts 231°
2026-05-08 05:34 30.27892 -103.93119 36086 ft 399 kts 231°
2026-05-08 05:35 30.24359 -103.98070 36076 ft 399 kts 231°
2026-05-08 05:35 30.22590 -104.00547 35944 ft 399 kts 231°
2026-05-08 05:35 30.20821 -104.03022 35942 ft 399 kts 231°
2026-05-08 05:36 30.17284 -104.07969 35922 ft 398 kts 231°
2026-05-08 05:36 30.13781 -104.12860 35927 ft 397 kts 231°
2026-05-08 05:37 30.10255 -104.17779 35924 ft 397 kts 231°
2026-05-08 05:37 30.06727 -104.22696 35912 ft 397 kts 231°
2026-05-08 05:38 30.03190 -104.27618 35909 ft 399 kts 231°
2026-05-08 05:38 29.99645 -104.32545 35908 ft 399 kts 231°
2026-05-08 05:39 29.96085 -104.37486 35905 ft 399 kts 231°
2026-05-08 05:39 29.92553 -104.42382 35913 ft 399 kts 231°
2026-05-08 05:40 29.89000 -104.47298 35930 ft 400 kts 231°
2026-05-08 05:40 29.85437 -104.52225 35922 ft 399 kts 231°
2026-05-08 05:41 29.81877 -104.57145 35922 ft 399 kts 231°
2026-05-08 05:41 29.78275 -104.62019 35914 ft 400 kts 229°
2026-05-08 05:42 29.74535 -104.66743 35904 ft 400 kts 228°
2026-05-08 05:42 29.70773 -104.71462 35888 ft 400 kts 229°
2026-05-08 05:43 29.67055 -104.76170 35875 ft 401 kts 229°
2026-05-08 05:43 29.63321 -104.80918 35869 ft 400 kts 229°
2026-05-08 05:44 29.59592 -104.85662 35872 ft 400 kts 229°
2026-05-08 05:44 29.55861 -104.90399 35872 ft 400 kts 229°
2026-05-08 05:45 29.52132 -104.95129 35879 ft 399 kts 229°
2026-05-08 05:45 29.48404 -104.99847 35873 ft 398 kts 229°
2026-05-08 05:46 29.44685 -105.04550 35871 ft 397 kts 229°
2026-05-08 05:46 29.40990 -105.09219 35868 ft 398 kts 229°
2026-05-08 05:47 29.37266 -105.13921 35872 ft 398 kts 229°
2026-05-08 05:47 29.33542 -105.18616 35867 ft 398 kts 229°
2026-05-08 05:48 29.29818 -105.23302 35870 ft 398 kts 229°
2026-05-08 05:48 29.26090 -105.27988 35866 ft 398 kts 229°
2026-05-08 05:49 29.22367 -105.32665 35875 ft 396 kts 228°
2026-05-08 05:49 29.18689 -105.37279 35867 ft 392 kts 228°
2026-05-08 05:50 29.15016 -105.41881 35866 ft 391 kts 228°
2026-05-08 05:50 29.11351 -105.46469 35867 ft 391 kts 228°
2026-05-08 05:51 29.07677 -105.51063 35866 ft 391 kts 228°
2026-05-08 05:51 29.04001 -105.55653 35866 ft 391 kts 228°
2026-05-08 05:52 29.00321 -105.60226 35870 ft 391 kts 228°
2026-05-08 05:52 28.96662 -105.64783 35889 ft 391 kts 228°
2026-05-08 05:53 28.92986 -105.69371 35881 ft 392 kts 228°
2026-05-08 05:53 28.89290 -105.73971 35882 ft 393 kts 228°
2026-05-08 05:54 28.85585 -105.78572 35903 ft 395 kts 228°
2026-05-08 05:54 28.81841 -105.83217 35902 ft 399 kts 228°
2026-05-08 05:55 28.78085 -105.87870 35888 ft 398 kts 227°
2026-05-08 05:55 28.74366 -105.92502 35909 ft 398 kts 229°
2026-05-08 05:56 28.71236 -105.97700 35932 ft 399 kts 240°
2026-05-08 05:56 28.69080 -106.03572 35939 ft 404 kts 246°
2026-05-08 05:57 28.67141 -106.09586 35955 ft 410 kts 246°
2026-05-08 05:57 28.65193 -106.15708 35959 ft 411 kts 246°
2026-05-08 05:58 28.63226 -106.21822 35981 ft 410 kts 246°
2026-05-08 05:58 28.61243 -106.27928 35986 ft 410 kts 246°
2026-05-08 05:59 28.59254 -106.34029 35985 ft 410 kts 246°
2026-05-08 05:59 28.57274 -106.40096 36013 ft 413 kts 246°
2026-05-08 06:00 28.55268 -106.46234 36010 ft 414 kts 246°
2026-05-08 06:00 28.53254 -106.52381 36027 ft 414 kts 246°
2026-05-08 06:01 28.51241 -106.58516 36024 ft 415 kts 246°
2026-05-08 06:01 28.49224 -106.64657 36034 ft 413 kts 246°
2026-05-08 06:02 28.47213 -106.70765 36049 ft 412 kts 246°
2026-05-08 06:02 28.45193 -106.76885 36038 ft 414 kts 246°
2026-05-08 06:03 28.43183 -106.82967 36053 ft 414 kts 246°
2026-05-08 06:03 28.41154 -106.89096 36053 ft 414 kts 246°
2026-05-08 06:04 28.39123 -106.95223 36065 ft 414 kts 246°
2026-05-08 06:04 28.37092 -107.01340 36063 ft 414 kts 246°
2026-05-08 06:05 28.35051 -107.07470 36081 ft 415 kts 246°
2026-05-08 06:05 28.33007 -107.13603 36074 ft 416 kts 246°
2026-05-08 06:06 28.30971 -107.19702 36083 ft 416 kts 246°
2026-05-08 06:06 28.28919 -107.25847 36088 ft 417 kts 246°
2026-05-08 06:07 28.26858 -107.32002 36084 ft 416 kts 246°
2026-05-08 06:07 28.24801 -107.38133 36088 ft 416 kts 246°
2026-05-08 06:08 28.23085 -107.43239 36088 ft 417 kts 247°
2026-05-08 06:08 28.21015 -107.49390 36102 ft 418 kts 247°
2026-05-08 06:09 28.18941 -107.55546 36099 ft 418 kts 247°
2026-05-08 06:09 28.16864 -107.61703 36101 ft 418 kts 247°
2026-05-08 06:10 28.14790 -107.67848 36100 ft 418 kts 247°
2026-05-08 06:10 28.12704 -107.73995 36101 ft 418 kts 247°
2026-05-08 06:11 28.10624 -107.80112 36107 ft 419 kts 247°
2026-05-08 06:11 28.08524 -107.86277 36100 ft 419 kts 247°
2026-05-08 06:12 28.06422 -107.92444 36097 ft 420 kts 247°
2026-05-08 06:12 28.04320 -107.98607 36090 ft 419 kts 247°
2026-05-08 06:13 28.02220 -108.04753 36083 ft 417 kts 247°
2026-05-08 06:13 28.00131 -108.10855 36078 ft 415 kts 247°
2026-05-08 06:14 27.98041 -108.16945 36068 ft 415 kts 247°
2026-05-08 06:14 27.95946 -108.23039 36073 ft 416 kts 247°
2026-05-08 06:15 27.93857 -108.29108 36066 ft 415 kts 247°
2026-05-08 06:15 27.91756 -108.35205 36071 ft 416 kts 247°
2026-05-08 06:16 27.89658 -108.41293 36069 ft 416 kts 247°
2026-05-08 06:16 27.87549 -108.47377 36058 ft 415 kts 247°
2026-05-08 06:17 27.84383 -108.56487 36060 ft 415 kts 247°
2026-05-08 06:17 27.82281 -108.62550 36043 ft 414 kts 247°
2026-05-08 06:18 27.80185 -108.68566 36049 ft 415 kts 247°
2026-05-08 06:18 27.78071 -108.74626 36038 ft 415 kts 247°
2026-05-08 06:19 27.75953 -108.80685 36048 ft 415 kts 247°
2026-05-08 06:19 27.73822 -108.86777 36030 ft 418 kts 247°
2026-05-08 06:20 27.71686 -108.92889 36027 ft 419 kts 247°
2026-05-08 06:20 27.69541 -108.99002 36017 ft 418 kts 247°
2026-05-08 06:21 27.67415 -109.05049 36021 ft 417 kts 247°
2026-05-08 06:21 27.65272 -109.11134 36017 ft 417 kts 247°
2026-05-08 06:22 27.63120 -109.17234 36002 ft 420 kts 247°
2026-05-08 06:22 27.60952 -109.23376 36002 ft 422 kts 247°
2026-05-08 06:23 27.58773 -109.29539 35996 ft 422 kts 247°
2026-05-08 06:23 27.56601 -109.35680 35964 ft 422 kts 247°
2026-05-08 06:24 27.54432 -109.41794 35990 ft 417 kts 247°
2026-05-08 06:24 27.52274 -109.47864 35995 ft 417 kts 247°
2026-05-08 06:25 27.50120 -109.53911 35988 ft 421 kts 247°
2026-05-08 06:25 27.47936 -109.60037 35987 ft 421 kts 247°
2026-05-08 06:26 27.45752 -109.66156 35986 ft 421 kts 247°
2026-05-08 06:26 27.43563 -109.72279 35980 ft 421 kts 247°
2026-05-08 06:27 27.41372 -109.78390 35979 ft 421 kts 247°
2026-05-08 06:27 27.38576 -109.84134 35980 ft 423 kts 234°
2026-05-08 06:28 27.34619 -109.89066 35979 ft 427 kts 227°
2026-05-08 06:28 27.30343 -109.93724 35976 ft 428 kts 226°
2026-05-08 06:29 27.26037 -109.98337 35976 ft 428 kts 226°
2026-05-08 06:29 27.21734 -110.02974 35976 ft 428 kts 226°
2026-05-08 06:30 27.17450 -110.07608 35953 ft 427 kts 226°
2026-05-08 06:30 27.13180 -110.12232 35977 ft 424 kts 226°
2026-05-08 06:31 27.08936 -110.16822 35976 ft 425 kts 226°
2026-05-08 06:31 27.04687 -110.21412 35974 ft 427 kts 226°
2026-05-08 06:32 27.00396 -110.26040 35974 ft 428 kts 226°
2026-05-08 06:32 26.96107 -110.30661 35975 ft 428 kts 226°
2026-05-08 06:33 26.91813 -110.35282 35974 ft 428 kts 226°
2026-05-08 06:33 26.87518 -110.39900 35974 ft 428 kts 226°
2026-05-08 06:34 26.83225 -110.44510 35960 ft 427 kts 226°
2026-05-08 06:34 26.78945 -110.49100 35976 ft 425 kts 226°
2026-05-08 06:35 26.74699 -110.53652 35974 ft 426 kts 226°
2026-05-08 06:35 26.70411 -110.58242 35975 ft 426 kts 226°
2026-05-08 06:36 26.66125 -110.62825 35972 ft 426 kts 226°
2026-05-08 06:36 26.61833 -110.67410 35973 ft 426 kts 226°
2026-05-08 06:37 26.57539 -110.71991 35978 ft 426 kts 226°
2026-05-08 06:37 26.53250 -110.76572 35976 ft 426 kts 226°
2026-05-08 06:38 26.48954 -110.81139 35957 ft 427 kts 226°
2026-05-08 06:38 26.44647 -110.85713 35978 ft 427 kts 226°
2026-05-08 06:39 26.40365 -110.90260 35977 ft 427 kts 226°
2026-05-08 06:39 26.36056 -110.94832 35987 ft 428 kts 226°
2026-05-08 06:40 26.31737 -110.99410 35977 ft 427 kts 226°
2026-05-08 06:40 26.27428 -111.03972 35979 ft 427 kts 226°
2026-05-08 06:41 26.23121 -111.08535 35976 ft 427 kts 226°
2026-05-08 06:41 26.18801 -111.13097 35977 ft 427 kts 226°
2026-05-08 06:42 26.14471 -111.17661 35985 ft 430 kts 226°
2026-05-08 06:42 26.10139 -111.22226 35986 ft 432 kts 226°
2026-05-08 06:43 26.05775 -111.26820 35989 ft 432 kts 226°
2026-05-08 06:43 26.01409 -111.31418 35997 ft 431 kts 226°
2026-05-08 06:44 25.97661 -111.36513 35997 ft 428 kts 239°
2026-05-08 06:44 25.94973 -111.42406 36012 ft 428 kts 245°
2026-05-08 06:45 25.92543 -111.48433 36013 ft 427 kts 246°
2026-05-08 06:45 25.90137 -111.54470 36020 ft 427 kts 245°
2026-05-08 06:46 25.87706 -111.60496 36017 ft 427 kts 245°
2026-05-08 06:46 25.85263 -111.66520 36020 ft 428 kts 245°
2026-05-08 06:47 25.82815 -111.72537 36021 ft 428 kts 245°
2026-05-08 06:47 25.80365 -111.78551 36018 ft 428 kts 245°
2026-05-08 06:48 25.77903 -111.84584 36033 ft 431 kts 245°
2026-05-08 06:48 25.75422 -111.90656 36009 ft 432 kts 245°
2026-05-08 06:49 25.72943 -111.96715 36027 ft 430 kts 245°
2026-05-08 06:49 25.70476 -112.02737 36025 ft 429 kts 245°
2026-05-08 06:50 25.68021 -112.08720 36020 ft 429 kts 245°
2026-05-08 06:50 25.65544 -112.14748 36013 ft 429 kts 245°
2026-05-08 06:51 25.63054 -112.20798 36021 ft 431 kts 245°
2026-05-08 06:51 25.60576 -112.26812 36020 ft 432 kts 245°
2026-05-08 06:52 25.58082 -112.32858 36021 ft 432 kts 245°
2026-05-08 06:52 25.55585 -112.38900 36020 ft 432 kts 245°
2026-05-08 06:53 25.53083 -112.44947 36020 ft 432 kts 245°
2026-05-08 06:53 25.50575 -112.50998 36022 ft 434 kts 245°
2026-05-08 06:54 25.48046 -112.57092 36021 ft 435 kts 245°
2026-05-08 06:54 25.45515 -112.63184 36025 ft 435 kts 245°
2026-05-08 06:55 25.42981 -112.69273 36024 ft 435 kts 245°
2026-05-08 06:55 25.40448 -112.75352 36025 ft 435 kts 245°
2026-05-08 06:56 25.38339 -112.80404 36021 ft 436 kts 245°
2026-05-08 06:56 25.35374 -112.87500 36031 ft 437 kts 245°
2026-05-08 06:57 25.32818 -112.93608 36031 ft 438 kts 245°
2026-05-08 06:57 25.30693 -112.98679 36034 ft 437 kts 245°
2026-05-08 06:58 25.28133 -113.04783 36020 ft 437 kts 245°
2026-05-08 06:58 25.25582 -113.10854 36031 ft 435 kts 245°
2026-05-08 06:59 25.23028 -113.16923 36032 ft 436 kts 245°
2026-05-08 06:59 25.20464 -113.23009 36034 ft 437 kts 245°
2026-05-08 07:00 25.17894 -113.29101 36042 ft 437 kts 245°
2026-05-08 07:00 25.15325 -113.35180 36045 ft 437 kts 245°
2026-05-08 07:01 25.12772 -113.41215 36046 ft 437 kts 245°
2026-05-08 07:01 25.10194 -113.47298 36049 ft 438 kts 245°
2026-05-08 07:02 25.07604 -113.53404 36050 ft 440 kts 245°
2026-05-08 07:02 25.05008 -113.59513 36048 ft 440 kts 245°
2026-05-08 07:03 25.02411 -113.65619 36051 ft 439 kts 245°
2026-05-08 07:03 24.99828 -113.71681 36053 ft 439 kts 245°
2026-05-08 07:04 24.97222 -113.77790 36056 ft 440 kts 245°
2026-05-08 07:04 24.94609 -113.83905 36053 ft 442 kts 245°
2026-05-08 07:05 24.91987 -113.90035 36053 ft 442 kts 245°
2026-05-08 07:05 24.89366 -113.96154 36050 ft 442 kts 245°
2026-05-08 07:06 24.86737 -114.02284 36059 ft 442 kts 245°
2026-05-08 07:06 24.84107 -114.08404 36056 ft 442 kts 245°
2026-05-08 07:07 24.81474 -114.14527 36067 ft 443 kts 245°
2026-05-08 07:07 24.78841 -114.20640 36060 ft 441 kts 245°
2026-05-08 07:08 24.76235 -114.26682 36063 ft 439 kts 245°
2026-05-08 07:08 24.73608 -114.32763 36060 ft 439 kts 245°
2026-05-08 07:09 24.70985 -114.38828 36062 ft 439 kts 245°
2026-05-08 07:09 24.68353 -114.44906 36062 ft 441 kts 245°
2026-05-08 07:10 24.65712 -114.50995 36066 ft 441 kts 245°
2026-05-08 07:10 24.63086 -114.57042 36072 ft 441 kts 245°
2026-05-08 07:11 24.60441 -114.63126 36067 ft 441 kts 245°
2026-05-08 07:11 24.57795 -114.69202 36073 ft 441 kts 245°
2026-05-08 07:12 24.55147 -114.75277 36081 ft 441 kts 245°
2026-05-08 07:12 24.52493 -114.81354 36068 ft 441 kts 245°
2026-05-08 07:13 24.49838 -114.87427 36077 ft 441 kts 245°
2026-05-08 07:13 24.47180 -114.93500 36068 ft 441 kts 245°
2026-05-08 07:14 24.44519 -114.99569 36068 ft 441 kts 245°
2026-05-08 07:14 24.41859 -115.05630 36076 ft 441 kts 245°
2026-05-08 07:15 24.39191 -115.11701 36067 ft 441 kts 245°
2026-05-08 07:15 24.36540 -115.17724 36073 ft 441 kts 245°
2026-05-08 07:16 24.33869 -115.23784 36073 ft 441 kts 245°
2026-05-08 07:16 24.31194 -115.29846 36081 ft 439 kts 245°
2026-05-08 07:17 24.28529 -115.35878 36080 ft 439 kts 245°
2026-05-08 07:17 24.25866 -115.41897 36081 ft 439 kts 245°
2026-05-08 07:18 24.23197 -115.47923 36080 ft 439 kts 245°
2026-05-08 07:18 24.20528 -115.53939 36084 ft 439 kts 245°
2026-05-08 07:19 24.17866 -115.59933 36083 ft 439 kts 245°
2026-05-08 07:19 24.15189 -115.65952 36086 ft 439 kts 245°
2026-05-08 07:20 24.12508 -115.71972 36076 ft 440 kts 245°
2026-05-08 07:20 24.09819 -115.78003 36089 ft 441 kts 245°
2026-05-08 07:21 24.07127 -115.84032 36067 ft 441 kts 245°
2026-05-08 07:21 24.04430 -115.90065 36085 ft 441 kts 245°
2026-05-08 07:22 24.01734 -115.96089 36086 ft 441 kts 245°
2026-05-08 07:22 23.99026 -116.02111 36088 ft 441 kts 244°
2026-05-08 07:23 23.96195 -116.08029 36090 ft 441 kts 243°
2026-05-08 07:23 23.93301 -116.13946 36095 ft 441 kts 243°
2026-05-08 07:24 23.90417 -116.19884 36092 ft 441 kts 243°
2026-05-08 07:24 23.87550 -116.25821 36094 ft 441 kts 243°
2026-05-08 07:25 23.84684 -116.31759 36088 ft 442 kts 243°
2026-05-08 07:26 23.80399 -116.40624 36091 ft 441 kts 243°
2026-05-08 07:26 23.77529 -116.46549 36092 ft 441 kts 243°
2026-05-08 07:27 23.74660 -116.52465 36094 ft 441 kts 243°
2026-05-08 07:27 23.71789 -116.58378 36093 ft 441 kts 243°
2026-05-08 07:28 23.68913 -116.64295 36098 ft 441 kts 243°
2026-05-08 07:28 23.66051 -116.70174 36094 ft 441 kts 243°
2026-05-08 07:29 23.63171 -116.76084 36098 ft 441 kts 243°
2026-05-08 07:29 23.60286 -116.81997 36098 ft 441 kts 243°
2026-05-08 07:30 23.57385 -116.87920 36096 ft 441 kts 243°
2026-05-08 07:30 23.54513 -116.93799 36100 ft 442 kts 243°
2026-05-08 07:31 23.51623 -116.99711 36100 ft 442 kts 243°
2026-05-08 07:31 23.48720 -117.05633 36097 ft 442 kts 243°
2026-05-08 07:32 23.45829 -117.11523 36100 ft 442 kts 243°
2026-05-08 07:32 23.42914 -117.17454 36101 ft 442 kts 243°
2026-05-08 07:33 23.40020 -117.23335 36099 ft 443 kts 243°
2026-05-08 07:33 23.37108 -117.29245 36099 ft 442 kts 243°
2026-05-08 07:34 23.34216 -117.35108 36099 ft 442 kts 243°
2026-05-08 07:34 23.31297 -117.41019 36102 ft 442 kts 243°
2026-05-08 07:35 23.28393 -117.46892 36101 ft 442 kts 243°
2026-05-08 07:35 23.25480 -117.52777 36102 ft 442 kts 243°
2026-05-08 07:36 23.22578 -117.58633 36102 ft 443 kts 243°
2026-05-08 07:36 23.19649 -117.64535 36105 ft 443 kts 243°
2026-05-08 07:37 23.16720 -117.70432 36104 ft 443 kts 243°
2026-05-08 07:37 23.13804 -117.76294 36107 ft 443 kts 243°
2026-05-08 07:38 23.10874 -117.82179 36106 ft 443 kts 243°
2026-05-08 07:38 23.07943 -117.88057 36108 ft 443 kts 243°
2026-05-08 07:39 23.05017 -117.93919 36108 ft 443 kts 243°
2026-05-08 07:39 23.02097 -117.99763 36107 ft 442 kts 243°
2026-05-08 07:40 22.99155 -118.05644 36105 ft 442 kts 242°
2026-05-08 07:40 22.96222 -118.11498 36108 ft 443 kts 243°
2026-05-08 07:41 22.93271 -118.17383 36085 ft 443 kts 242°
2026-05-08 07:41 22.90343 -118.23215 36107 ft 442 kts 242°
2026-05-08 07:42 22.87409 -118.29052 36108 ft 441 kts 242°
2026-05-08 07:42 22.84472 -118.34890 36113 ft 441 kts 242°
2026-05-08 07:43 22.81528 -118.40733 36112 ft 442 kts 242°
2026-05-08 07:43 22.78587 -118.46563 36113 ft 442 kts 242°
2026-05-08 07:44 22.75636 -118.52407 36113 ft 442 kts 242°
2026-05-08 07:44 22.72698 -118.58218 36113 ft 442 kts 242°
2026-05-08 07:45 22.69736 -118.64070 36113 ft 442 kts 242°
2026-05-08 07:45 22.66788 -118.69888 36114 ft 443 kts 242°
2026-05-08 07:46 22.63812 -118.75754 36116 ft 443 kts 242°
2026-05-08 07:46 22.60854 -118.81580 36116 ft 443 kts 242°
2026-05-08 07:47 22.57877 -118.87435 36116 ft 443 kts 242°
2026-05-08 07:47 22.54917 -118.93250 36116 ft 443 kts 242°
2026-05-08 07:48 22.51940 -118.99091 36118 ft 444 kts 242°
2026-05-08 07:48 22.48955 -119.04941 36113 ft 445 kts 242°
2026-05-08 07:49 22.45962 -119.10803 36110 ft 444 kts 242°
2026-05-08 07:49 22.42987 -119.16620 36119 ft 441 kts 242°
2026-05-08 07:50 22.40025 -119.22404 36119 ft 441 kts 242°
2026-05-08 07:50 22.37051 -119.28208 36120 ft 442 kts 242°
2026-05-08 07:51 22.34082 -119.33994 36118 ft 443 kts 242°
2026-05-08 07:51 22.31097 -119.39806 36121 ft 443 kts 242°
2026-05-08 07:52 22.28107 -119.45620 36122 ft 443 kts 242°
2026-05-08 07:52 22.25112 -119.51438 36121 ft 443 kts 242°
2026-05-08 07:53 22.22614 -119.56286 36123 ft 443 kts 242°
2026-05-08 07:53 22.19625 -119.62080 36124 ft 444 kts 242°
2026-05-08 07:54 22.16599 -119.67939 36123 ft 444 kts 242°
2026-05-08 07:54 22.13606 -119.73728 36127 ft 444 kts 242°
2026-05-08 07:55 22.10584 -119.79566 36124 ft 444 kts 242°
2026-05-08 07:55 22.07569 -119.85385 36125 ft 445 kts 242°
2026-05-08 07:56 22.04545 -119.91214 36125 ft 447 kts 242°
2026-05-08 07:56 22.01511 -119.97057 36126 ft 447 kts 242°
2026-05-08 07:57 21.98515 -120.02879 36119 ft 445 kts 243°
2026-05-08 07:57 21.95671 -120.08795 36125 ft 442 kts 244°
2026-05-08 07:58 21.92887 -120.14666 36120 ft 443 kts 244°
2026-05-08 07:58 21.90066 -120.20553 36121 ft 444 kts 244°
2026-05-08 07:59 21.87203 -120.26478 36121 ft 444 kts 243°
2026-05-08 07:59 21.84355 -120.32355 36121 ft 444 kts 243°
2026-05-08 08:00 21.81496 -120.38249 36128 ft 444 kts 243°
2026-05-08 08:00 21.78642 -120.44129 36129 ft 445 kts 244°
2026-05-08 08:01 21.75783 -120.50014 36121 ft 445 kts 243°
2026-05-08 08:01 21.72924 -120.55890 36126 ft 445 kts 243°
2026-05-08 08:02 21.70050 -120.61790 36127 ft 445 kts 243°
2026-05-08 08:02 21.67174 -120.67689 36119 ft 446 kts 243°
2026-05-08 08:03 21.64291 -120.73598 36126 ft 445 kts 243°
2026-05-08 08:03 21.61411 -120.79491 36120 ft 446 kts 243°
2026-05-08 08:04 21.58539 -120.85363 36117 ft 446 kts 243°
2026-05-08 08:04 21.55651 -120.91260 36121 ft 446 kts 243°
2026-05-08 08:05 21.52777 -120.97120 36116 ft 446 kts 243°
2026-05-08 08:05 21.49884 -121.03015 36126 ft 447 kts 243°
2026-05-08 08:06 21.46981 -121.08923 36130 ft 447 kts 243°
2026-05-08 08:06 21.44072 -121.14837 36121 ft 447 kts 243°
2026-05-08 08:07 21.41168 -121.20733 36118 ft 447 kts 243°
2026-05-08 08:07 21.38262 -121.26627 36122 ft 447 kts 243°
2026-05-08 08:08 21.35367 -121.32494 36119 ft 448 kts 243°
2026-05-08 08:08 21.32444 -121.38410 36125 ft 449 kts 243°
2026-05-08 08:09 21.29518 -121.44325 36128 ft 449 kts 243°
2026-05-08 08:09 21.26586 -121.50245 36126 ft 449 kts 243°
2026-05-08 08:10 21.23671 -121.56125 36125 ft 449 kts 243°
2026-05-08 08:10 21.20745 -121.62020 36120 ft 450 kts 243°
2026-05-08 08:11 21.17802 -121.67944 36117 ft 450 kts 243°
2026-05-08 08:11 21.14857 -121.73865 36119 ft 450 kts 243°
2026-05-08 08:12 21.11921 -121.79762 36126 ft 450 kts 243°
2026-05-08 08:12 21.08975 -121.85673 36120 ft 451 kts 244°
2026-05-08 08:13 21.06005 -121.91623 36123 ft 452 kts 244°
2026-05-08 08:13 21.03061 -121.97518 36112 ft 451 kts 243°
2026-05-08 08:14 21.00109 -122.03420 36122 ft 449 kts 243°
2026-05-08 08:14 20.97170 -122.09290 36114 ft 448 kts 243°
2026-05-08 08:15 20.94206 -122.15205 36118 ft 449 kts 243°
2026-05-08 08:15 20.91271 -122.21055 36119 ft 449 kts 243°
2026-05-08 08:16 20.88318 -122.26935 36120 ft 449 kts 243°
2026-05-08 08:16 20.85355 -122.32827 36119 ft 449 kts 243°
2026-05-08 08:17 20.82397 -122.38703 36116 ft 450 kts 243°
2026-05-08 08:17 20.79425 -122.44603 36116 ft 451 kts 243°
2026-05-08 08:18 20.76466 -122.50469 36114 ft 451 kts 243°
2026-05-08 08:18 20.73485 -122.56372 36113 ft 450 kts 243°
2026-05-08 08:19 20.70520 -122.62238 36112 ft 450 kts 244°
2026-05-08 08:19 20.67538 -122.68131 36113 ft 452 kts 243°
2026-05-08 08:20 20.64548 -122.74034 36112 ft 452 kts 243°
2026-05-08 08:20 20.61556 -122.79935 36113 ft 452 kts 243°
2026-05-08 08:21 20.58548 -122.85860 36112 ft 452 kts 243°
2026-05-08 08:21 20.55563 -122.91732 36110 ft 453 kts 244°
2026-05-08 08:22 20.52568 -122.97618 36104 ft 450 kts 243°
2026-05-08 08:22 20.49584 -123.03479 36121 ft 449 kts 243°
2026-05-08 08:23 20.46610 -123.09311 36119 ft 449 kts 243°
2026-05-08 08:23 20.43621 -123.15169 36117 ft 449 kts 243°
2026-05-08 08:24 20.40622 -123.21039 36111 ft 450 kts 243°
2026-05-08 08:24 20.37648 -123.26857 36108 ft 450 kts 243°
2026-05-08 08:25 20.34643 -123.32727 36098 ft 450 kts 243°
2026-05-08 08:25 20.31640 -123.38586 36113 ft 450 kts 243°
2026-05-08 08:26 20.28648 -123.44419 36112 ft 450 kts 243°
2026-05-08 08:26 20.25643 -123.50271 36110 ft 450 kts 243°
2026-05-08 08:27 20.22636 -123.56120 36095 ft 450 kts 243°
2026-05-08 08:27 20.19638 -123.61946 36112 ft 450 kts 243°
2026-05-08 08:28 20.16629 -123.67787 36114 ft 450 kts 243°
2026-05-08 08:28 20.13612 -123.73639 36112 ft 451 kts 243°
2026-05-08 08:29 20.10593 -123.79489 36106 ft 452 kts 243°
2026-05-08 08:29 20.07578 -123.85324 36101 ft 452 kts 243°
2026-05-08 08:30 20.04548 -123.91180 36105 ft 450 kts 243°
2026-05-08 08:30 20.00026 -123.99910 36355 ft 445 kts 244°
2026-05-08 08:31 19.98565 -124.02779 36698 ft 441 kts 245°
2026-05-08 08:31 19.97170 -124.05640 36981 ft 437 kts 245°
2026-05-08 08:31 19.95803 -124.08501 37224 ft 435 kts 246°
2026-05-08 08:31 19.94430 -124.11391 37438 ft 433 kts 246°
2026-05-08 08:32 19.93075 -124.14232 37610 ft 432 kts 246°
2026-05-08 08:32 19.91723 -124.17051 37794 ft 431 kts 246°
2026-05-08 08:32 19.90342 -124.19916 37957 ft 430 kts 246°
2026-05-08 08:32 19.88981 -124.22729 38081 ft 430 kts 246°
2026-05-08 08:33 19.86239 -124.28381 38099 ft 434 kts 246°
2026-05-08 08:33 19.83451 -124.34119 38099 ft 436 kts 246°
2026-05-08 08:34 19.80683 -124.39808 38100 ft 435 kts 246°
2026-05-08 08:34 19.77897 -124.45530 38099 ft 435 kts 246°
2026-05-08 08:35 19.75131 -124.51206 38100 ft 435 kts 246°
2026-05-08 08:35 19.72334 -124.56942 38099 ft 436 kts 246°
2026-05-08 08:36 19.69552 -124.62641 38097 ft 436 kts 246°
2026-05-08 08:36 19.66765 -124.68344 38097 ft 436 kts 246°
2026-05-08 08:37 19.63972 -124.74053 38087 ft 436 kts 246°
2026-05-08 08:37 19.61191 -124.79733 38097 ft 436 kts 246°
2026-05-08 08:38 19.58378 -124.85472 38094 ft 437 kts 246°
2026-05-08 08:38 19.55590 -124.91152 38089 ft 436 kts 246°
2026-05-08 08:39 19.52800 -124.96832 38094 ft 434 kts 246°
2026-05-08 08:39 19.49999 -125.02529 38093 ft 434 kts 246°
2026-05-08 08:40 19.47222 -125.08174 38094 ft 434 kts 246°
2026-05-08 08:40 19.44434 -125.13835 38091 ft 434 kts 246°
2026-05-08 08:41 19.41641 -125.19500 38091 ft 434 kts 246°
2026-05-08 08:41 19.38839 -125.25179 38088 ft 434 kts 246°
2026-05-08 08:42 19.36050 -125.30824 38088 ft 435 kts 246°
2026-05-08 08:42 19.33240 -125.36507 38088 ft 435 kts 246°
2026-05-08 08:43 19.30439 -125.42164 38088 ft 435 kts 246°
2026-05-08 08:43 19.27621 -125.47853 38086 ft 435 kts 246°
2026-05-08 08:44 19.24803 -125.53534 38087 ft 436 kts 246°
2026-05-08 08:44 19.21995 -125.59192 38087 ft 436 kts 246°
2026-05-08 08:45 19.19175 -125.64868 38091 ft 436 kts 246°
2026-05-08 08:45 19.16364 -125.70520 38079 ft 436 kts 246°
2026-05-08 08:46 19.13526 -125.76220 38079 ft 436 kts 246°
2026-05-08 08:46 19.10698 -125.81894 38087 ft 436 kts 246°
2026-05-08 08:47 19.07883 -125.87538 38085 ft 436 kts 246°
2026-05-08 08:47 19.05055 -125.93202 38077 ft 436 kts 246°
2026-05-08 08:48 19.02214 -125.98885 38081 ft 435 kts 246°
2026-05-08 08:48 18.99400 -126.04511 38080 ft 435 kts 246°
2026-05-08 08:49 18.96566 -126.10173 38080 ft 435 kts 246°
2026-05-08 08:49 18.93738 -126.15816 38080 ft 435 kts 246°
2026-05-08 08:50 18.90918 -126.21438 38080 ft 435 kts 246°
2026-05-08 08:50 18.88081 -126.27088 38074 ft 435 kts 246°
2026-05-08 08:51 18.85257 -126.32707 38078 ft 434 kts 246°
2026-05-08 08:51 18.82427 -126.38333 38078 ft 434 kts 246°
2026-05-08 08:52 18.79580 -126.43989 38078 ft 434 kts 246°
2026-05-08 08:52 18.76741 -126.49620 38080 ft 434 kts 246°
2026-05-08 08:53 18.73915 -126.55221 38071 ft 435 kts 247°
2026-05-08 08:53 18.71069 -126.60858 38087 ft 435 kts 247°
2026-05-08 08:54 18.68237 -126.66464 38073 ft 435 kts 247°
2026-05-08 08:54 18.65382 -126.72106 38068 ft 435 kts 247°
2026-05-08 08:55 18.62529 -126.77740 38085 ft 435 kts 247°
2026-05-08 08:55 18.59687 -126.83348 38092 ft 434 kts 247°
2026-05-08 08:56 18.56842 -126.88957 38068 ft 434 kts 247°
2026-05-08 08:56 18.53995 -126.94560 38087 ft 434 kts 248°
2026-05-08 08:57 18.51629 -126.99218 38070 ft 433 kts 248°
2026-05-08 08:57 18.48773 -127.04837 38079 ft 434 kts 248°
2026-05-08 08:58 18.45939 -127.10406 38079 ft 434 kts 248°
2026-05-08 08:58 18.43083 -127.16012 38083 ft 434 kts 248°
2026-05-08 08:59 18.40225 -127.21616 38083 ft 434 kts 248°
2026-05-08 08:59 18.37369 -127.27211 38079 ft 434 kts 248°
2026-05-08 09:00 18.34516 -127.32795 38083 ft 434 kts 248°
2026-05-08 09:00 18.31668 -127.38364 38086 ft 434 kts 248°
2026-05-08 09:01 18.28803 -127.43963 38083 ft 434 kts 248°
2026-05-08 09:01 18.25945 -127.49541 38078 ft 434 kts 248°
2026-05-08 09:02 18.23079 -127.55130 38081 ft 434 kts 248°
2026-05-08 09:02 18.20209 -127.60723 38080 ft 434 kts 248°
2026-05-08 09:03 18.17341 -127.66308 38079 ft 434 kts 248°
2026-05-08 09:03 18.14476 -127.71880 38069 ft 434 kts 248°
2026-05-08 09:04 18.11602 -127.77466 38078 ft 434 kts 248°
2026-05-08 09:04 18.08744 -127.83016 38077 ft 434 kts 248°
2026-05-08 09:05 18.05871 -127.88590 38073 ft 434 kts 248°
2026-05-08 09:05 18.02988 -127.94181 38078 ft 436 kts 248°
2026-05-08 09:06 18.00095 -127.99786 38070 ft 437 kts 248°
2026-05-08 09:06 17.97287 -128.05454 38079 ft 436 kts 249°
2026-05-08 09:07 17.94601 -128.11165 38072 ft 436 kts 250°
2026-05-08 09:07 17.91910 -128.16863 38072 ft 436 kts 249°
2026-05-08 09:08 17.89192 -128.22559 38073 ft 437 kts 249°
2026-05-08 09:08 17.86466 -128.28246 38056 ft 438 kts 249°
2026-05-08 09:09 17.83729 -128.33943 38079 ft 438 kts 249°
2026-05-08 09:09 17.80989 -128.39643 38074 ft 438 kts 249°
2026-05-08 09:10 17.78236 -128.45367 38054 ft 438 kts 249°
2026-05-08 09:10 17.75494 -128.51064 38071 ft 438 kts 249°
2026-05-08 09:11 17.72763 -128.56734 38067 ft 438 kts 249°
2026-05-08 09:11 17.70012 -128.62439 38059 ft 438 kts 249°
2026-05-08 09:12 17.67262 -128.68138 38069 ft 438 kts 249°
2026-05-08 09:12 17.64516 -128.73825 38065 ft 439 kts 249°
2026-05-08 09:13 17.61757 -128.79530 38064 ft 439 kts 249°
2026-05-08 09:13 17.58994 -128.85240 38065 ft 439 kts 249°
2026-05-08 09:14 17.56229 -128.90947 38059 ft 439 kts 249°
2026-05-08 09:14 17.53481 -128.96617 38059 ft 438 kts 250°
2026-05-08 09:15 17.50722 -129.02302 38060 ft 438 kts 250°
2026-05-08 09:15 17.47955 -129.08002 38063 ft 438 kts 250°
2026-05-08 09:16 17.45198 -129.13673 38052 ft 438 kts 250°
2026-05-08 09:16 17.42437 -129.19348 38057 ft 437 kts 250°
2026-05-08 09:17 17.39675 -129.25020 38057 ft 437 kts 250°
2026-05-08 09:17 17.36927 -129.30659 38057 ft 437 kts 250°
2026-05-08 09:18 17.34165 -129.36322 38054 ft 436 kts 249°
2026-05-08 09:18 17.31412 -129.41961 38059 ft 435 kts 249°
2026-05-08 09:19 17.28656 -129.47600 38056 ft 434 kts 249°
2026-05-08 09:19 17.25912 -129.53212 38056 ft 434 kts 249°
2026-05-08 09:20 17.23160 -129.58836 38049 ft 434 kts 249°
2026-05-08 09:20 17.20407 -129.64456 38056 ft 433 kts 249°
2026-05-08 09:21 17.17663 -129.70049 38054 ft 432 kts 249°
2026-05-08 09:23 17.08053 -129.89611 38053 ft 432 kts 249°
2026-05-08 09:23 17.05309 -129.95187 38053 ft 432 kts 248°
2026-05-08 09:24 17.02553 -130.00783 38045 ft 433 kts 248°
2026-05-08 09:24 16.99791 -130.06386 38051 ft 435 kts 248°
2026-05-08 09:25 16.97031 -130.11979 38049 ft 436 kts 248°
2026-05-08 09:25 16.94241 -130.17626 38050 ft 436 kts 248°
2026-05-08 09:26 16.91453 -130.23263 38050 ft 436 kts 248°
2026-05-08 09:26 16.88665 -130.28901 38049 ft 437 kts 248°
2026-05-08 09:27 16.85873 -130.34540 38051 ft 437 kts 247°
2026-05-08 09:27 16.83090 -130.40154 38049 ft 437 kts 247°
2026-05-08 09:28 16.80300 -130.45779 38048 ft 437 kts 247°
2026-05-08 09:28 16.77497 -130.51426 38047 ft 438 kts 247°
2026-05-08 09:29 16.74698 -130.57061 38047 ft 439 kts 247°
2026-05-08 09:29 16.71878 -130.62731 38046 ft 439 kts 247°
2026-05-08 09:30 16.69069 -130.68376 38048 ft 439 kts 247°
2026-05-08 09:30 16.66255 -130.74025 38049 ft 439 kts 247°
2026-05-08 09:31 16.63427 -130.79697 38046 ft 439 kts 247°
2026-05-08 09:31 16.60620 -130.85323 38044 ft 439 kts 247°
2026-05-08 09:32 16.57799 -130.90973 38044 ft 439 kts 247°
2026-05-08 09:32 16.54979 -130.96617 38045 ft 441 kts 246°
2026-05-08 09:33 16.52144 -131.02285 38044 ft 441 kts 246°
2026-05-08 09:33 16.49303 -131.07960 38042 ft 441 kts 246°
2026-05-08 09:34 16.46471 -131.13613 38037 ft 441 kts 246°
2026-05-08 09:34 16.43629 -131.19281 38040 ft 441 kts 246°
2026-05-08 09:35 16.40804 -131.24911 38037 ft 440 kts 246°
2026-05-08 09:35 16.37961 -131.30571 38039 ft 440 kts 246°
2026-05-08 09:36 16.35123 -131.36218 38038 ft 440 kts 246°
2026-05-08 09:36 16.32290 -131.41849 38040 ft 440 kts 246°
2026-05-08 09:37 16.29452 -131.47485 38034 ft 439 kts 246°
2026-05-08 09:37 16.26614 -131.53118 38034 ft 439 kts 246°
2026-05-08 09:38 16.23771 -131.58756 38033 ft 439 kts 246°
2026-05-08 09:38 16.20945 -131.64355 38034 ft 439 kts 246°
2026-05-08 09:39 16.18106 -131.69975 38027 ft 439 kts 246°
2026-05-08 09:39 16.15270 -131.75586 38029 ft 438 kts 246°
2026-05-08 09:40 16.12427 -131.81205 38027 ft 438 kts 246°
2026-05-08 09:40 16.09611 -131.86765 38029 ft 437 kts 246°
2026-05-08 09:41 16.06771 -131.92370 38030 ft 437 kts 246°
2026-05-08 09:41 16.03948 -131.97937 38028 ft 437 kts 246°
2026-05-08 09:42 16.01099 -132.03555 38026 ft 439 kts 245°
2026-05-08 09:42 15.98258 -132.09149 38026 ft 441 kts 245°
2026-05-08 09:43 15.95396 -132.14778 38026 ft 441 kts 245°
2026-05-08 09:43 15.92520 -132.20428 38022 ft 441 kts 245°
2026-05-08 09:44 15.89644 -132.26077 38026 ft 442 kts 245°
2026-05-08 09:44 15.86790 -132.31676 38026 ft 442 kts 245°
2026-05-08 09:45 15.83906 -132.37332 38027 ft 442 kts 245°
2026-05-08 09:45 15.81037 -132.42955 38023 ft 442 kts 245°
2026-05-08 09:46 15.78152 -132.48602 38022 ft 442 kts 245°
2026-05-08 09:46 15.75269 -132.54241 38023 ft 442 kts 245°
2026-05-08 09:47 15.72391 -132.59867 38025 ft 442 kts 245°
2026-05-08 09:47 15.69512 -132.65490 38022 ft 442 kts 245°
2026-05-08 09:48 15.66627 -132.71121 38023 ft 442 kts 245°
2026-05-08 09:48 15.63750 -132.76731 38023 ft 442 kts 245°
2026-05-08 09:49 15.60855 -132.82373 38024 ft 442 kts 245°
2026-05-08 09:49 15.57959 -132.88011 38023 ft 442 kts 245°
2026-05-08 09:50 15.55084 -132.93605 38024 ft 442 kts 245°
2026-05-08 09:50 15.52185 -132.99239 38022 ft 442 kts 245°
2026-05-08 09:51 15.49307 -133.04830 38021 ft 442 kts 245°
2026-05-08 09:51 15.46395 -133.10486 38023 ft 444 kts 245°
2026-05-08 09:52 15.43498 -133.16104 38015 ft 444 kts 245°
2026-05-08 09:52 15.40586 -133.21748 38013 ft 444 kts 245°
2026-05-08 09:53 15.37677 -133.27380 38015 ft 445 kts 245°
2026-05-08 09:53 15.34755 -133.33035 38026 ft 445 kts 245°
2026-05-08 09:54 15.31833 -133.38684 38023 ft 445 kts 245°
2026-05-08 09:54 15.29400 -133.43386 38017 ft 445 kts 245°
2026-05-08 09:55 15.25997 -133.49957 38025 ft 446 kts 245°
2026-05-08 09:55 15.23542 -133.54693 38018 ft 446 kts 245°
2026-05-08 09:56 15.20604 -133.60357 38014 ft 446 kts 245°
2026-05-08 09:56 15.17688 -133.65975 38016 ft 446 kts 245°
2026-05-08 09:57 15.13278 -133.74463 38025 ft 446 kts 245°
2026-05-08 09:57 15.10336 -133.80120 38012 ft 446 kts 245°
2026-05-08 09:58 15.07389 -133.85783 38024 ft 446 kts 244°
2026-05-08 09:58 15.04457 -133.91412 38012 ft 447 kts 244°
2026-05-08 09:59 15.01504 -133.97079 38013 ft 448 kts 244°
2026-05-08 09:59 14.98521 -134.02725 38014 ft 449 kts 243°
2026-05-08 10:00 14.95277 -134.08271 38014 ft 450 kts 242°
2026-05-08 10:00 14.91994 -134.13765 38015 ft 450 kts 242°
2026-05-08 10:01 14.88727 -134.19306 38017 ft 450 kts 242°
2026-05-08 10:01 14.85495 -134.24835 38006 ft 450 kts 242°
2026-05-08 10:02 14.82259 -134.30380 38014 ft 450 kts 242°
2026-05-08 10:02 14.79043 -134.35885 38009 ft 450 kts 242°
2026-05-08 10:03 14.75806 -134.41419 38010 ft 450 kts 242°
2026-05-08 10:03 14.72568 -134.46952 38007 ft 450 kts 242°
2026-05-08 10:04 14.69322 -134.52492 38010 ft 451 kts 242°
2026-05-08 10:04 14.66079 -134.58024 38010 ft 451 kts 242°
2026-05-08 10:05 14.62824 -134.63574 37998 ft 450 kts 242°
2026-05-08 10:05 14.59583 -134.69094 38004 ft 450 kts 242°
2026-05-08 10:06 14.56340 -134.74615 38004 ft 451 kts 242°
2026-05-08 10:06 14.53080 -134.80160 38002 ft 451 kts 242°
2026-05-08 10:07 14.49848 -134.85654 38007 ft 451 kts 242°
2026-05-08 10:07 14.46586 -134.91196 38000 ft 451 kts 242°
2026-05-08 10:08 14.43326 -134.96731 37999 ft 451 kts 242°
2026-05-08 10:08 14.40076 -135.02245 37998 ft 450 kts 242°
2026-05-08 10:09 14.36836 -135.07738 37996 ft 450 kts 242°
2026-05-08 10:09 14.33585 -135.13245 37996 ft 450 kts 242°
2026-05-08 10:10 14.30321 -135.18771 37997 ft 451 kts 242°
2026-05-08 10:10 14.27066 -135.24279 37999 ft 452 kts 242°
2026-05-08 10:11 14.23795 -135.29810 37993 ft 452 kts 242°
2026-05-08 10:11 14.20520 -135.35344 37992 ft 452 kts 242°
2026-05-08 10:12 14.17246 -135.40870 37992 ft 452 kts 242°
2026-05-08 10:12 14.13978 -135.46385 37989 ft 452 kts 242°
2026-05-08 10:13 14.10707 -135.51901 37990 ft 452 kts 242°
2026-05-08 10:13 14.07426 -135.57430 37984 ft 452 kts 242°
2026-05-08 10:14 14.04137 -135.62967 37988 ft 452 kts 242°
2026-05-08 10:14 14.00874 -135.68459 37988 ft 452 kts 242°
2026-05-08 10:15 13.97592 -135.73979 37988 ft 452 kts 242°
2026-05-08 10:15 13.94308 -135.79497 37983 ft 452 kts 242°
2026-05-08 10:16 13.91040 -135.84987 37985 ft 452 kts 242°
2026-05-08 10:16 13.87740 -135.90524 37985 ft 452 kts 242°
2026-05-08 10:17 13.84452 -135.96037 37985 ft 452 kts 242°
2026-05-08 10:17 13.81157 -136.01561 37984 ft 453 kts 242°
2026-05-08 10:18 13.77887 -136.07039 37985 ft 453 kts 242°
2026-05-08 10:18 13.74585 -136.12566 37985 ft 453 kts 242°
2026-05-08 10:19 13.71281 -136.18091 37982 ft 453 kts 242°
2026-05-08 10:20 13.66333 -136.26362 37983 ft 454 kts 242°
2026-05-08 10:20 13.63019 -136.31898 37983 ft 454 kts 242°
2026-05-08 10:21 13.59729 -136.37389 37988 ft 454 kts 242°
2026-05-08 10:21 13.56401 -136.42942 37975 ft 454 kts 241°
2026-05-08 10:22 13.53097 -136.48448 37979 ft 455 kts 241°
2026-05-08 10:22 13.49769 -136.53991 37978 ft 455 kts 241°
2026-05-08 10:23 13.46462 -136.59496 37979 ft 455 kts 241°
2026-05-08 10:23 13.43131 -136.65037 37978 ft 455 kts 241°
2026-05-08 10:24 13.39809 -136.70559 37978 ft 455 kts 241°
2026-05-08 10:24 13.36491 -136.76073 37975 ft 455 kts 241°
2026-05-08 10:25 13.33163 -136.81599 37973 ft 456 kts 241°
2026-05-08 10:25 13.29824 -136.87140 37975 ft 456 kts 241°
2026-05-08 10:26 13.26479 -136.92686 37974 ft 456 kts 241°
2026-05-08 10:26 13.23149 -136.98206 38009 ft 456 kts 241°
2026-05-08 10:27 13.19824 -137.03710 37979 ft 455 kts 241°
2026-05-08 10:27 13.16477 -137.09250 37971 ft 456 kts 241°
2026-05-08 10:28 13.13126 -137.14794 37971 ft 457 kts 241°
2026-05-08 10:28 13.09791 -137.20309 37967 ft 457 kts 241°
2026-05-08 10:29 13.06436 -137.25851 37963 ft 457 kts 240°
2026-05-08 10:29 13.03100 -137.31359 37967 ft 456 kts 240°
2026-05-08 10:30 12.99749 -137.36890 37969 ft 456 kts 240°
2026-05-08 10:30 12.96395 -137.42422 37966 ft 458 kts 240°
2026-05-08 10:31 12.93042 -137.47947 37965 ft 459 kts 240°
2026-05-08 10:31 12.89669 -137.53501 37963 ft 459 kts 240°
2026-05-08 10:32 12.86296 -137.59053 37962 ft 459 kts 240°
2026-05-08 10:32 12.82924 -137.64600 37966 ft 458 kts 240°
2026-05-08 10:33 12.79574 -137.70107 37957 ft 458 kts 240°
2026-05-08 10:33 12.76192 -137.75665 37959 ft 459 kts 240°
2026-05-08 10:34 12.72797 -137.81240 37960 ft 461 kts 239°
2026-05-08 10:34 12.69421 -137.86779 37957 ft 461 kts 239°
2026-05-08 10:35 12.66036 -137.92329 37957 ft 461 kts 239°
2026-05-08 10:35 12.62631 -137.97908 37961 ft 461 kts 239°
2026-05-08 10:36 12.59245 -138.03454 37954 ft 461 kts 239°
2026-05-08 10:36 12.55850 -138.09013 37956 ft 462 kts 239°
2026-05-08 10:37 12.52438 -138.14595 37954 ft 464 kts 239°
2026-05-08 10:37 12.49018 -138.20187 37955 ft 464 kts 239°
2026-05-08 10:38 12.45585 -138.25796 37956 ft 464 kts 239°
2026-05-08 10:38 12.42174 -138.31366 37956 ft 463 kts 239°
2026-05-08 10:39 12.38740 -138.36971 37954 ft 463 kts 239°
2026-05-08 10:39 12.35332 -138.42530 37952 ft 463 kts 239°
2026-05-08 10:40 12.31910 -138.48111 37951 ft 463 kts 238°
2026-05-08 10:40 12.28482 -138.53696 37949 ft 464 kts 238°
2026-05-08 10:41 12.25056 -138.59274 37948 ft 464 kts 238°
2026-05-08 10:41 12.21629 -138.64850 37948 ft 464 kts 238°
2026-05-08 10:42 12.18193 -138.70436 37950 ft 463 kts 238°
2026-05-08 10:42 12.14758 -138.76019 37957 ft 464 kts 238°
2026-05-08 10:43 12.11333 -138.81584 37949 ft 465 kts 238°
2026-05-08 10:43 12.07894 -138.87166 37952 ft 465 kts 238°
2026-05-08 10:44 12.04436 -138.92778 37952 ft 465 kts 238°
2026-05-08 10:44 12.00995 -138.98358 37949 ft 465 kts 238°
2026-05-08 10:45 11.97584 -139.03972 37948 ft 465 kts 239°
2026-05-08 10:45 11.94276 -139.09659 37940 ft 465 kts 239°
2026-05-08 10:46 11.91005 -139.15295 37948 ft 464 kts 239°
2026-05-08 10:46 11.87680 -139.20981 37946 ft 464 kts 239°
2026-05-08 10:47 11.84387 -139.26589 37946 ft 464 kts 239°
2026-05-08 10:47 11.81073 -139.32227 37947 ft 463 kts 239°
2026-05-08 10:48 11.77756 -139.37867 37944 ft 463 kts 239°
2026-05-08 10:48 11.74441 -139.43502 37945 ft 463 kts 239°
2026-05-08 10:49 11.71136 -139.49118 37945 ft 463 kts 239°
2026-05-08 10:49 11.67813 -139.54761 37942 ft 463 kts 239°
2026-05-08 10:50 11.64493 -139.60395 37942 ft 463 kts 239°
2026-05-08 10:50 11.61198 -139.65981 37945 ft 463 kts 239°
2026-05-08 10:51 11.57877 -139.71611 37945 ft 462 kts 239°
2026-05-08 10:51 11.54555 -139.77238 37943 ft 463 kts 239°
2026-05-08 10:52 11.51240 -139.82852 37940 ft 463 kts 238°
2026-05-08 10:52 11.47925 -139.88461 37941 ft 464 kts 238°
2026-05-08 10:53 11.44589 -139.94103 37945 ft 464 kts 238°
2026-05-08 10:53 11.41252 -139.99742 37944 ft 464 kts 239°
2026-05-08 10:54 11.37938 -140.05340 37942 ft 464 kts 239°
2026-05-08 10:54 11.34599 -140.10978 37942 ft 463 kts 239°
2026-05-08 10:55 11.31267 -140.16601 37942 ft 463 kts 239°
2026-05-08 10:55 11.27956 -140.22188 37941 ft 464 kts 238°
2026-05-08 10:56 11.25165 -140.26893 37938 ft 465 kts 238°
2026-05-08 10:56 11.21814 -140.32537 37939 ft 465 kts 238°
2026-05-08 10:57 11.18466 -140.38175 37940 ft 465 kts 238°
2026-05-08 10:57 11.13461 -140.46597 37940 ft 465 kts 238°
2026-05-08 10:58 11.10108 -140.52236 37937 ft 465 kts 238°
2026-05-08 10:58 11.06773 -140.57843 37935 ft 465 kts 238°
2026-05-08 10:59 11.03401 -140.63508 37939 ft 466 kts 238°
2026-05-08 10:59 11.00039 -140.69151 37940 ft 466 kts 238°
2026-05-08 11:00 10.96680 -140.74787 37937 ft 466 kts 238°
2026-05-08 11:00 10.93338 -140.80392 37940 ft 466 kts 238°
2026-05-08 11:01 10.89976 -140.86028 37936 ft 466 kts 238°
2026-05-08 11:01 10.86615 -140.91660 37936 ft 466 kts 238°
2026-05-08 11:02 10.81561 -141.00121 37935 ft 468 kts 237°
2026-05-08 11:03 10.78193 -141.05754 37934 ft 468 kts 237°
2026-05-08 11:03 10.74800 -141.11427 37936 ft 468 kts 237°
2026-05-08 11:04 10.71410 -141.17093 37934 ft 468 kts 237°
2026-05-08 11:04 10.68038 -141.22727 37931 ft 468 kts 237°
2026-05-08 11:05 10.64651 -141.28384 37932 ft 468 kts 237°
2026-05-08 11:05 10.61262 -141.34039 37924 ft 468 kts 237°
2026-05-08 11:06 10.57860 -141.39713 37935 ft 471 kts 237°
2026-05-08 11:06 10.54464 -141.45373 37935 ft 471 kts 237°
2026-05-08 11:07 10.51044 -141.51072 37927 ft 471 kts 237°
2026-05-08 11:07 10.47629 -141.56758 37928 ft 471 kts 237°
2026-05-08 11:08 10.44224 -141.62425 37933 ft 471 kts 237°
2026-05-08 11:08 10.40810 -141.68103 37929 ft 471 kts 237°
2026-05-08 11:09 10.37403 -141.73770 37929 ft 472 kts 237°
2026-05-08 11:09 10.33969 -141.79478 37930 ft 475 kts 237°
2026-05-08 11:10 10.30504 -141.85231 37933 ft 476 kts 237°
2026-05-08 11:10 10.27075 -141.90924 37929 ft 476 kts 237°
2026-05-08 11:11 10.23619 -141.96660 37926 ft 476 kts 237°
2026-05-08 11:11 10.20149 -142.02414 37926 ft 476 kts 237°
2026-05-08 11:12 10.16698 -142.08135 37927 ft 476 kts 236°
2026-05-08 11:12 10.13242 -142.13862 37923 ft 477 kts 237°
2026-05-08 11:13 10.09781 -142.19591 37923 ft 480 kts 237°
2026-05-08 11:13 10.06284 -142.25380 37923 ft 481 kts 237°
2026-05-08 11:14 10.02790 -142.31161 37924 ft 480 kts 237°
2026-05-08 11:14 9.99297 -142.36936 37925 ft 480 kts 237°
2026-05-08 11:15 9.95801 -142.42715 37926 ft 480 kts 237°
2026-05-08 11:15 9.92330 -142.48448 37926 ft 480 kts 237°
2026-05-08 11:16 9.88843 -142.54206 37928 ft 480 kts 236°
2026-05-08 11:16 9.85346 -142.59977 37924 ft 480 kts 237°
2026-05-08 11:17 9.81840 -142.65762 37922 ft 480 kts 236°
2026-05-08 11:17 9.78338 -142.71533 37921 ft 480 kts 236°
2026-05-08 11:18 9.74856 -142.77271 37918 ft 480 kts 237°
2026-05-08 11:18 9.71356 -142.83036 37916 ft 480 kts 237°
2026-05-08 11:19 9.67869 -142.88775 37934 ft 479 kts 237°
2026-05-08 11:19 9.64362 -142.94545 37911 ft 480 kts 236°
2026-05-08 11:20 9.60857 -143.00308 37915 ft 483 kts 236°
2026-05-08 11:20 9.57326 -143.06112 37917 ft 481 kts 237°
2026-05-08 11:21 9.53818 -143.11877 37935 ft 480 kts 237°
2026-05-08 11:21 9.50315 -143.17631 37913 ft 480 kts 237°
2026-05-08 11:22 9.46821 -143.23366 37908 ft 480 kts 237°
2026-05-08 11:22 9.43306 -143.29129 37930 ft 479 kts 238°
2026-05-08 11:23 9.39824 -143.34841 37931 ft 477 kts 238°
2026-05-08 11:23 9.36334 -143.40565 37914 ft 477 kts 238°
2026-05-08 11:24 9.32844 -143.46284 37911 ft 477 kts 238°
2026-05-08 11:24 9.29377 -143.51962 37931 ft 477 kts 238°
2026-05-08 11:25 9.25878 -143.57689 37909 ft 477 kts 238°
2026-05-08 11:25 9.22383 -143.63407 37914 ft 477 kts 238°
2026-05-08 11:26 9.18906 -143.69094 37932 ft 477 kts 238°
2026-05-08 11:26 9.15418 -143.74799 37912 ft 478 kts 237°
2026-05-08 11:27 9.11901 -143.80546 37909 ft 480 kts 237°
2026-05-08 11:27 9.08400 -143.86261 37930 ft 480 kts 237°
2026-05-08 11:28 9.04872 -143.92020 37933 ft 480 kts 237°
2026-05-08 11:28 9.01360 -143.97749 37915 ft 479 kts 237°
2026-05-08 11:29 8.97877 -144.03478 37917 ft 481 kts 238°
2026-05-08 11:29 8.94463 -144.09288 37935 ft 481 kts 238°
2026-05-08 11:30 8.91065 -144.15097 37914 ft 480 kts 238°
2026-05-08 11:30 8.87634 -144.20927 37932 ft 484 kts 238°
2026-05-08 11:31 8.84164 -144.26800 37930 ft 487 kts 237°
2026-05-08 11:31 8.80676 -144.32699 37913 ft 488 kts 237°
2026-05-08 11:32 8.77202 -144.38574 37913 ft 488 kts 237°
2026-05-08 11:32 8.73731 -144.44443 37913 ft 488 kts 238°
2026-05-08 11:33 8.70244 -144.50337 37933 ft 488 kts 237°
2026-05-08 11:33 8.66755 -144.56229 37931 ft 488 kts 238°
2026-05-08 11:34 8.63294 -144.62072 37912 ft 489 kts 238°
2026-05-08 11:34 8.59777 -144.68008 37912 ft 491 kts 238°
2026-05-08 11:35 8.56273 -144.73918 37930 ft 491 kts 237°
2026-05-08 11:35 8.52782 -144.79804 37911 ft 491 kts 237°
2026-05-08 11:36 8.49261 -144.85738 37911 ft 492 kts 238°
2026-05-08 11:36 8.45739 -144.91671 37912 ft 492 kts 238°
2026-05-08 11:37 8.42221 -144.97597 37929 ft 492 kts 237°
2026-05-08 11:37 8.38701 -145.03520 37907 ft 492 kts 237°
2026-05-08 11:38 8.35202 -145.09407 37907 ft 492 kts 237°
2026-05-08 11:38 8.31672 -145.15341 37909 ft 492 kts 238°
2026-05-08 11:39 8.28138 -145.21282 37927 ft 492 kts 237°
2026-05-08 11:39 8.24615 -145.27201 37908 ft 492 kts 238°
2026-05-08 11:40 8.21090 -145.33121 37908 ft 492 kts 238°
2026-05-08 11:40 8.17570 -145.39033 37912 ft 492 kts 238°
2026-05-08 11:41 8.14045 -145.44950 37924 ft 492 kts 238°
2026-05-08 11:41 8.10523 -145.50860 37909 ft 492 kts 237°
2026-05-08 11:42 8.06990 -145.56784 37915 ft 492 kts 237°
2026-05-08 11:42 8.03452 -145.62710 37915 ft 493 kts 237°
2026-05-08 11:43 7.99909 -145.68645 37909 ft 493 kts 237°
2026-05-08 11:43 7.96381 -145.74552 37907 ft 493 kts 237°
2026-05-08 11:44 7.92845 -145.80472 37925 ft 493 kts 237°
2026-05-08 11:44 7.89292 -145.86417 37909 ft 495 kts 237°
2026-05-08 11:45 7.85758 -145.92328 37904 ft 495 kts 237°
2026-05-08 11:45 7.82188 -145.98298 37904 ft 496 kts 237°
2026-05-08 11:46 7.78620 -146.04260 37903 ft 497 kts 237°
2026-05-08 11:46 7.75065 -146.10198 37905 ft 497 kts 237°
2026-05-08 11:47 7.71493 -146.16163 37907 ft 497 kts 236°
2026-05-08 11:47 7.67925 -146.22119 37906 ft 497 kts 237°
2026-05-08 11:48 7.64356 -146.28077 37906 ft 497 kts 236°
2026-05-08 11:48 7.60786 -146.34029 37908 ft 498 kts 236°
2026-05-08 11:49 7.57173 -146.40051 37909 ft 501 kts 237°
2026-05-08 11:49 7.53578 -146.46041 37907 ft 502 kts 236°
2026-05-08 11:50 7.49976 -146.52043 37908 ft 502 kts 237°
2026-05-08 11:50 7.46361 -146.58063 37906 ft 502 kts 237°
2026-05-08 11:51 7.42750 -146.64074 37906 ft 501 kts 236°
2026-05-08 11:51 7.39126 -146.70104 37907 ft 501 kts 237°
2026-05-08 11:52 7.35532 -146.76084 37899 ft 501 kts 237°
2026-05-08 11:52 7.31915 -146.82100 37899 ft 501 kts 237°
2026-05-08 11:53 7.28317 -146.88080 37902 ft 501 kts 237°
2026-05-08 11:53 7.24698 -146.94092 37902 ft 501 kts 236°
2026-05-08 11:54 7.21099 -147.00070 37901 ft 501 kts 237°
2026-05-08 11:54 7.17496 -147.06051 37899 ft 501 kts 236°
2026-05-08 11:55 7.13884 -147.12044 37901 ft 500 kts 236°
2026-05-08 11:55 7.10293 -147.18002 37901 ft 496 kts 237°
2026-05-08 11:56 7.06720 -147.23929 37898 ft 495 kts 237°
2026-05-08 11:56 7.03734 -147.28879 37899 ft 495 kts 237°
2026-05-08 11:57 7.00174 -147.34777 37899 ft 497 kts 237°
2026-05-08 11:57 6.96569 -147.40748 37890 ft 497 kts 238°
2026-05-08 11:58 6.92997 -147.46664 37890 ft 494 kts 237°
2026-05-08 11:58 6.89425 -147.52579 37904 ft 493 kts 237°
2026-05-08 11:59 6.84093 -147.61401 37908 ft 493 kts 237°
2026-05-08 11:59 6.80523 -147.67306 37887 ft 493 kts 237°
2026-05-08 12:00 6.76975 -147.73172 37889 ft 493 kts 238°
2026-05-08 12:00 6.73411 -147.79064 37907 ft 493 kts 237°
2026-05-08 12:01 6.69821 -147.84994 37904 ft 493 kts 237°
2026-05-08 12:01 6.66276 -147.90851 37888 ft 493 kts 237°
2026-05-08 12:02 6.62694 -147.96765 37887 ft 493 kts 237°
2026-05-08 12:02 6.59117 -148.02667 37907 ft 494 kts 237°
2026-05-08 12:03 6.55568 -148.08524 37904 ft 494 kts 237°
2026-05-08 12:03 6.51990 -148.14427 37899 ft 494 kts 237°
2026-05-08 12:04 6.48411 -148.20328 37884 ft 493 kts 237°
2026-05-08 12:04 6.44839 -148.26214 37907 ft 493 kts 238°
2026-05-08 12:05 6.41289 -148.32065 37905 ft 493 kts 237°
2026-05-08 12:05 6.37708 -148.37962 37884 ft 493 kts 237°
2026-05-08 12:06 6.34136 -148.43845 37887 ft 493 kts 237°
2026-05-08 12:06 6.30559 -148.49734 37901 ft 493 kts 237°
2026-05-08 12:07 6.26989 -148.55608 37907 ft 492 kts 237°
2026-05-08 12:07 6.23440 -148.61447 37887 ft 492 kts 238°
2026-05-08 12:08 6.19871 -148.67317 37887 ft 492 kts 237°
2026-05-08 12:08 6.16304 -148.73181 37905 ft 493 kts 238°
2026-05-08 12:09 6.12720 -148.79072 37902 ft 494 kts 238°
2026-05-08 12:09 6.09135 -148.84963 37889 ft 494 kts 237°
2026-05-08 12:10 6.05545 -148.90861 37886 ft 494 kts 237°
2026-05-08 12:10 6.01979 -148.96716 37885 ft 494 kts 237°
2026-05-08 12:11 5.98370 -149.02593 38158 ft 493 kts 236°
2026-05-08 12:11 5.96498 -149.05467 38468 ft 490 kts 236°
2026-05-08 12:11 5.94605 -149.08304 38691 ft 488 kts 235°
2026-05-08 12:12 5.92709 -149.11127 38855 ft 487 kts 235°
2026-05-08 12:12 5.90811 -149.13960 38964 ft 488 kts 236°
2026-05-08 12:12 5.88925 -149.16792 39083 ft 488 kts 236°
2026-05-08 12:12 5.87044 -149.19629 39166 ft 489 kts 236°
2026-05-08 12:13 5.83273 -149.25340 39354 ft 490 kts 236°
2026-05-08 12:13 5.81393 -149.28191 39485 ft 489 kts 236°
2026-05-08 12:13 5.79515 -149.31041 39614 ft 489 kts 236°
2026-05-08 12:14 5.77643 -149.33880 39748 ft 488 kts 236°
2026-05-08 12:14 5.75767 -149.36725 39874 ft 488 kts 236°
2026-05-08 12:14 5.72016 -149.42410 39895 ft 488 kts 236°
2026-05-08 12:15 5.68260 -149.48099 39894 ft 488 kts 236°
2026-05-08 12:15 5.64508 -149.53780 39896 ft 488 kts 236°
2026-05-08 12:16 5.60782 -149.59422 39892 ft 488 kts 236°
2026-05-08 12:16 5.57028 -149.65104 39892 ft 489 kts 236°
2026-05-08 12:17 5.53253 -149.70816 39895 ft 490 kts 236°
2026-05-08 12:17 5.49476 -149.76530 39895 ft 491 kts 236°
2026-05-08 12:18 5.45724 -149.82205 39895 ft 490 kts 236°
2026-05-08 12:18 5.41947 -149.87915 39895 ft 490 kts 236°
2026-05-08 12:19 5.38178 -149.93612 39892 ft 491 kts 236°
2026-05-08 12:19 5.34397 -149.99325 39891 ft 491 kts 236°
2026-05-08 12:20 5.30619 -150.05032 39892 ft 491 kts 236°
2026-05-08 12:20 5.26840 -150.10741 39894 ft 491 kts 236°
2026-05-08 12:21 5.23043 -150.16473 39891 ft 493 kts 236°
2026-05-08 12:21 5.19243 -150.22209 39891 ft 493 kts 236°
2026-05-08 12:22 5.15447 -150.27938 39896 ft 493 kts 236°
2026-05-08 12:22 5.11676 -150.33626 39893 ft 493 kts 236°
2026-05-08 12:23 5.07876 -150.39359 39893 ft 493 kts 236°
2026-05-08 12:23 5.04075 -150.45090 39893 ft 493 kts 236°
2026-05-08 12:24 5.00281 -150.50813 39891 ft 492 kts 236°
2026-05-08 12:24 4.96490 -150.56527 39892 ft 493 kts 235°
2026-05-08 12:25 4.92678 -150.62270 39891 ft 495 kts 235°
2026-05-08 12:25 4.88857 -150.68025 39890 ft 496 kts 235°
2026-05-08 12:26 4.85034 -150.73782 39892 ft 496 kts 235°
2026-05-08 12:26 4.81217 -150.79531 39892 ft 496 kts 236°
2026-05-08 12:27 4.77414 -150.85256 39889 ft 496 kts 235°
2026-05-08 12:27 4.73594 -150.91005 39891 ft 495 kts 235°
2026-05-08 12:28 4.69770 -150.96760 39890 ft 495 kts 235°
2026-05-08 12:28 4.65949 -151.02509 39890 ft 495 kts 235°
2026-05-08 12:29 4.62117 -151.08271 39889 ft 496 kts 235°
2026-05-08 12:29 4.58307 -151.13999 39889 ft 497 kts 236°
2026-05-08 12:30 4.54444 -151.19807 39891 ft 497 kts 235°
2026-05-08 12:30 4.50635 -151.25531 39887 ft 497 kts 236°
2026-05-08 12:31 4.46794 -151.31304 39890 ft 497 kts 235°
2026-05-08 12:31 4.42957 -151.37068 39889 ft 497 kts 235°
2026-05-08 12:32 4.39115 -151.42839 39888 ft 497 kts 235°
2026-05-08 12:32 4.35271 -151.48612 39888 ft 497 kts 235°
2026-05-08 12:33 4.31427 -151.54382 39886 ft 498 kts 235°
2026-05-08 12:33 4.27600 -151.60126 39882 ft 498 kts 236°
2026-05-08 12:34 4.23746 -151.65910 39885 ft 498 kts 236°
2026-05-08 12:34 4.19898 -151.71684 39886 ft 498 kts 236°
2026-05-08 12:35 4.16045 -151.77464 39886 ft 499 kts 236°
2026-05-08 12:35 4.12189 -151.83247 39887 ft 499 kts 236°
2026-05-08 12:36 4.08364 -151.88983 39885 ft 498 kts 235°
2026-05-08 12:36 4.04510 -151.94760 39885 ft 498 kts 236°
2026-05-08 12:37 4.00651 -152.00544 39883 ft 499 kts 235°
2026-05-08 12:37 3.96797 -152.06319 39883 ft 499 kts 235°
2026-05-08 12:38 3.92934 -152.12106 39883 ft 499 kts 235°
2026-05-08 12:38 3.89076 -152.17886 39882 ft 499 kts 235°
2026-05-08 12:39 3.85211 -152.23675 39883 ft 499 kts 235°
2026-05-08 12:39 3.81374 -152.29420 39881 ft 500 kts 236°
2026-05-08 12:40 3.77505 -152.35212 39882 ft 500 kts 235°
2026-05-08 12:40 3.73636 -152.41003 39882 ft 500 kts 236°
2026-05-08 12:41 3.69763 -152.46799 39880 ft 500 kts 235°
2026-05-08 12:41 3.65896 -152.52586 39877 ft 500 kts 235°
2026-05-08 12:42 3.62023 -152.58378 39878 ft 501 kts 236°
2026-05-08 12:42 3.58167 -152.64147 39875 ft 501 kts 236°
2026-05-08 12:43 3.54289 -152.69946 39878 ft 501 kts 236°
2026-05-08 12:43 3.50412 -152.75743 39880 ft 501 kts 236°
2026-05-08 12:44 3.46525 -152.81554 39879 ft 502 kts 236°
2026-05-08 12:44 3.43304 -152.86369 39875 ft 501 kts 236°
2026-05-08 12:45 3.38790 -152.93115 39874 ft 501 kts 236°
2026-05-08 12:45 3.34911 -152.98911 39874 ft 501 kts 236°
2026-05-08 12:46 3.31026 -153.04714 39872 ft 501 kts 236°
2026-05-08 12:46 3.27796 -153.09539 39872 ft 501 kts 236°
2026-05-08 12:47 3.23913 -153.15339 39873 ft 501 kts 235°
2026-05-08 12:47 3.20035 -153.21129 39873 ft 502 kts 235°
2026-05-08 12:48 3.16148 -153.26932 39877 ft 501 kts 235°
2026-05-08 12:48 3.12267 -153.32726 39872 ft 501 kts 235°
2026-05-08 12:49 3.08385 -153.38518 39873 ft 501 kts 235°
2026-05-08 12:49 3.04498 -153.44319 39872 ft 501 kts 236°
2026-05-08 12:50 3.00639 -153.50077 39870 ft 501 kts 236°
2026-05-08 12:50 2.96754 -153.55873 39870 ft 501 kts 236°
2026-05-08 12:51 2.90926 -153.64566 39870 ft 501 kts 236°
2026-05-08 12:52 2.87035 -153.70368 39867 ft 501 kts 236°
2026-05-08 12:52 2.81207 -153.79059 39866 ft 501 kts 235°
2026-05-08 12:53 2.77323 -153.84849 39870 ft 501 kts 235°
2026-05-08 12:53 2.73439 -153.90637 39864 ft 501 kts 236°
2026-05-08 12:54 2.69554 -153.96427 39865 ft 501 kts 236°
2026-05-08 12:54 2.65664 -154.02225 39864 ft 501 kts 236°
2026-05-08 12:55 2.61772 -154.08023 39867 ft 502 kts 235°
2026-05-08 12:55 2.57877 -154.13825 39869 ft 502 kts 235°
2026-05-08 12:56 2.54011 -154.19585 39865 ft 502 kts 235°
2026-05-08 12:56 2.50118 -154.25383 39863 ft 502 kts 235°
2026-05-08 12:57 2.46221 -154.31186 39863 ft 502 kts 235°
2026-05-08 12:57 2.42328 -154.36984 39860 ft 502 kts 235°
2026-05-08 12:58 2.38434 -154.42781 39863 ft 502 kts 235°
2026-05-08 12:58 2.34539 -154.48578 39860 ft 501 kts 235°
2026-05-08 12:59 2.30650 -154.54367 39860 ft 501 kts 235°
2026-05-08 12:59 2.26783 -154.60123 39862 ft 501 kts 235°
2026-05-08 13:00 2.22893 -154.65910 39871 ft 501 kts 235°
2026-05-08 13:00 2.18998 -154.71707 39863 ft 502 kts 235°
2026-05-08 13:01 2.15106 -154.77497 39858 ft 501 kts 235°
2026-05-08 13:01 2.11216 -154.83284 39861 ft 501 kts 235°
2026-05-08 13:02 2.07326 -154.89071 39857 ft 501 kts 235°
2026-05-08 13:02 2.03434 -154.94859 39865 ft 501 kts 235°
2026-05-08 13:03 1.99572 -155.00603 39864 ft 500 kts 235°
2026-05-08 13:03 1.95341 -155.06179 39862 ft 500 kts 229°
2026-05-08 13:04 1.90930 -155.11484 39862 ft 500 kts 229°
2026-05-08 13:04 1.86519 -155.16861 39861 ft 500 kts 230°
2026-05-08 13:05 1.82160 -155.22282 39863 ft 500 kts 230°
2026-05-08 13:05 1.77815 -155.27724 39861 ft 500 kts 230°
2026-05-08 13:06 1.73475 -155.33162 39858 ft 501 kts 230°
2026-05-08 13:06 1.69113 -155.38620 39867 ft 503 kts 231°
2026-05-08 13:07 1.64736 -155.44097 39863 ft 504 kts 231°
2026-05-08 13:07 1.60350 -155.49583 39864 ft 504 kts 231°
2026-05-08 13:08 1.56000 -155.55025 39864 ft 504 kts 231°
2026-05-08 13:08 1.51614 -155.60509 39866 ft 504 kts 231°
2026-05-08 13:09 1.47230 -155.65994 39863 ft 504 kts 230°
2026-05-08 13:09 1.42846 -155.71476 39863 ft 504 kts 230°
2026-05-08 13:10 1.38490 -155.76921 39861 ft 504 kts 231°
2026-05-08 13:10 1.34110 -155.82398 39869 ft 503 kts 231°
2026-05-08 13:11 1.29728 -155.87876 39866 ft 503 kts 231°
2026-05-08 13:11 1.25356 -155.93343 39861 ft 503 kts 231°
2026-05-08 13:12 1.20986 -155.98805 39869 ft 503 kts 231°
2026-05-08 13:12 1.16620 -156.04263 39862 ft 503 kts 231°
2026-05-08 13:13 1.12279 -156.09690 39868 ft 502 kts 231°
2026-05-08 13:13 1.07914 -156.15145 39864 ft 502 kts 231°
2026-05-08 13:14 1.03549 -156.20601 39863 ft 502 kts 231°
2026-05-08 13:14 0.99188 -156.26051 39868 ft 502 kts 231°
2026-05-08 13:15 0.94824 -156.31505 39863 ft 502 kts 231°
2026-05-08 13:15 0.90464 -156.36954 39866 ft 502 kts 231°
2026-05-08 13:16 0.86128 -156.42372 39860 ft 502 kts 231°
2026-05-08 13:16 0.81767 -156.47822 39869 ft 502 kts 231°
2026-05-08 13:17 0.77407 -156.53270 39861 ft 502 kts 231°
2026-05-08 13:17 0.73046 -156.58719 39859 ft 502 kts 231°
2026-05-08 13:18 0.68673 -156.64182 39858 ft 502 kts 231°
2026-05-08 13:18 0.64331 -156.69607 39861 ft 503 kts 231°
2026-05-08 13:19 0.59955 -156.75075 39861 ft 503 kts 231°
2026-05-08 13:19 0.55588 -156.80530 39862 ft 503 kts 231°
2026-05-08 13:20 0.51221 -156.85986 39861 ft 503 kts 231°
2026-05-08 13:20 0.46883 -156.91405 39866 ft 503 kts 231°
2026-05-08 13:21 0.42513 -156.96864 39860 ft 503 kts 231°
2026-05-08 13:21 0.38141 -157.02326 39865 ft 503 kts 231°
2026-05-08 13:22 0.33763 -157.07794 39856 ft 503 kts 231°
2026-05-08 13:22 0.29391 -157.13256 39861 ft 503 kts 231°
2026-05-08 13:23 0.25018 -157.18718 39863 ft 503 kts 231°
2026-05-08 13:23 0.20645 -157.24180 39861 ft 503 kts 231°
2026-05-08 13:24 0.16269 -157.29646 39860 ft 504 kts 231°
2026-05-08 13:24 0.11893 -157.35112 39860 ft 504 kts 231°
2026-05-08 13:25 0.07517 -157.40578 39861 ft 504 kts 231°
2026-05-08 13:25 0.03171 -157.46007 39863 ft 504 kts 231°
2026-05-08 13:26 -0.01204 -157.51471 39868 ft 503 kts 231°
2026-05-08 13:26 -0.05579 -157.56937 39863 ft 502 kts 231°
2026-05-08 13:27 -0.09944 -157.62389 39864 ft 502 kts 231°
2026-05-08 13:27 -0.14315 -157.67849 39860 ft 503 kts 231°
2026-05-08 13:28 -0.18658 -157.73273 39861 ft 502 kts 231°
2026-05-08 13:28 -0.23024 -157.78727 39858 ft 502 kts 231°
2026-05-08 13:29 -0.27390 -157.84181 39861 ft 502 kts 231°
2026-05-08 13:29 -0.31756 -157.89636 39861 ft 502 kts 231°
2026-05-08 13:30 -0.36123 -157.95090 39861 ft 503 kts 231°
2026-05-08 13:30 -0.40493 -158.00549 39863 ft 502 kts 231°
2026-05-08 13:31 -0.44829 -158.05966 39869 ft 502 kts 231°
2026-05-08 13:31 -0.49198 -158.11424 39866 ft 502 kts 231°
2026-05-08 13:32 -0.53558 -158.16871 39862 ft 502 kts 231°
2026-05-08 13:32 -0.57918 -158.22317 39862 ft 502 kts 231°
2026-05-08 13:33 -0.62282 -158.27770 39859 ft 503 kts 231°
2026-05-08 13:33 -0.66625 -158.33195 39860 ft 503 kts 231°
2026-05-08 13:34 -0.70991 -158.38651 39865 ft 503 kts 231°
2026-05-08 13:34 -0.75356 -158.44105 39860 ft 502 kts 231°
2026-05-08 13:35 -0.79723 -158.49562 39865 ft 503 kts 231°
2026-05-08 13:35 -0.84092 -158.55021 39858 ft 503 kts 231°
2026-05-08 13:36 -0.87725 -158.59560 39860 ft 503 kts 231°
2026-05-08 13:36 -0.92094 -158.65020 39867 ft 503 kts 231°
2026-05-08 13:37 -0.96470 -158.70489 39860 ft 503 kts 231°
2026-05-08 13:37 -1.00846 -158.75958 39867 ft 503 kts 231°
2026-05-08 13:38 -1.05216 -158.81419 39866 ft 503 kts 231°
2026-05-08 13:38 -1.09562 -158.86850 39862 ft 503 kts 231°
2026-05-08 13:39 -1.13935 -158.92316 39867 ft 503 kts 231°
2026-05-08 13:39 -1.18309 -158.97784 39865 ft 503 kts 231°
2026-05-08 13:40 -1.22676 -159.03245 39866 ft 502 kts 231°
2026-05-08 13:40 -1.27015 -159.08669 39864 ft 503 kts 231°
2026-05-08 13:41 -1.31389 -159.14137 39860 ft 503 kts 231°
2026-05-08 13:41 -1.35758 -159.19599 39866 ft 503 kts 231°
2026-05-08 13:42 -1.40131 -159.25067 39862 ft 503 kts 231°
2026-05-08 13:42 -1.44506 -159.30537 39862 ft 503 kts 231°
2026-05-08 13:43 -1.48847 -159.35967 39863 ft 502 kts 232°
2026-05-08 13:43 -1.53212 -159.41426 39864 ft 502 kts 232°
2026-05-08 13:44 -1.57569 -159.46875 39873 ft 502 kts 232°
2026-05-08 13:44 -1.61929 -159.52329 39868 ft 502 kts 232°
2026-05-08 13:45 -1.66297 -159.57793 39864 ft 501 kts 232°
2026-05-08 13:45 -1.70647 -159.63236 39872 ft 501 kts 232°
2026-05-08 13:46 -1.74994 -159.68674 39863 ft 501 kts 232°
2026-05-08 13:46 -1.79346 -159.74120 39869 ft 501 kts 232°
2026-05-08 13:47 -1.83659 -159.79515 39866 ft 498 kts 232°
2026-05-08 13:47 -1.87989 -159.84935 39864 ft 498 kts 232°
2026-05-08 13:48 -1.92310 -159.90342 39870 ft 498 kts 232°
2026-05-08 13:48 -1.96635 -159.95756 39875 ft 498 kts 232°
2026-05-08 13:49 -2.00955 -160.01169 39868 ft 498 kts 233°
2026-05-08 13:49 -2.05153 -160.06681 39869 ft 497 kts 234°
2026-05-08 13:50 -2.09257 -160.12200 39870 ft 497 kts 234°
2026-05-08 13:50 -2.13404 -160.17745 39869 ft 498 kts 234°
2026-05-08 13:51 -2.17564 -160.23273 39865 ft 497 kts 234°
2026-05-08 13:51 -2.21718 -160.28784 39867 ft 495 kts 234°
2026-05-08 13:52 -2.25865 -160.34287 39870 ft 495 kts 234°
2026-05-08 13:52 -2.29994 -160.39766 39866 ft 496 kts 234°
2026-05-08 13:53 -2.34141 -160.45271 39865 ft 496 kts 234°
2026-05-08 13:53 -2.38287 -160.50777 39865 ft 495 kts 234°
2026-05-08 13:54 -2.42442 -160.56293 39863 ft 495 kts 234°
2026-05-08 13:54 -2.46581 -160.61789 39865 ft 494 kts 234°
2026-05-08 13:55 -2.50710 -160.67273 39868 ft 493 kts 234°
2026-05-08 13:56 -2.56868 -160.75452 39864 ft 492 kts 234°
2026-05-08 13:56 -2.60985 -160.80922 39864 ft 492 kts 234°
2026-05-08 13:57 -2.65106 -160.86398 39865 ft 492 kts 234°
2026-05-08 13:57 -2.69223 -160.91868 39861 ft 492 kts 234°
2026-05-08 13:58 -2.73336 -160.97334 39859 ft 492 kts 234°
2026-05-08 13:58 -2.77452 -161.02805 39863 ft 492 kts 234°
2026-05-08 13:59 -2.81540 -161.08240 39861 ft 492 kts 234°
2026-05-08 13:59 -2.85656 -161.13713 39860 ft 492 kts 234°
2026-05-08 14:00 -2.89776 -161.19191 39864 ft 492 kts 235°
2026-05-08 14:00 -2.93886 -161.24656 39867 ft 491 kts 235°
2026-05-08 14:01 -2.97993 -161.30119 39866 ft 491 kts 234°
2026-05-08 14:01 -3.02100 -161.35583 39865 ft 491 kts 234°
2026-05-08 14:02 -3.06185 -161.41018 39864 ft 491 kts 235°
2026-05-08 14:02 -3.10293 -161.46483 39865 ft 491 kts 235°
2026-05-08 14:03 -3.14404 -161.51955 39864 ft 491 kts 235°
2026-05-08 14:03 -3.18509 -161.57419 39864 ft 491 kts 234°
2026-05-08 14:04 -3.22611 -161.62879 39864 ft 490 kts 234°
2026-05-08 14:04 -3.26709 -161.68335 39866 ft 490 kts 235°
2026-05-08 14:05 -3.30778 -161.73754 39865 ft 490 kts 235°
2026-05-08 14:05 -3.34875 -161.79211 39864 ft 490 kts 234°
2026-05-08 14:06 -3.38972 -161.84668 39865 ft 490 kts 234°
2026-05-08 14:06 -3.43074 -161.90133 39867 ft 490 kts 235°
2026-05-08 14:07 -3.47169 -161.95590 39867 ft 490 kts 234°
2026-05-08 14:07 -3.51265 -162.01048 39864 ft 490 kts 235°
2026-05-08 14:08 -3.55332 -162.06469 39864 ft 490 kts 235°
2026-05-08 14:08 -3.59421 -162.11922 39861 ft 490 kts 234°
2026-05-08 14:09 -3.63511 -162.17375 39858 ft 490 kts 234°
2026-05-08 14:09 -3.67599 -162.22826 39862 ft 489 kts 235°
2026-05-08 14:10 -3.71689 -162.28282 39864 ft 489 kts 234°
2026-05-08 14:10 -3.75771 -162.33727 39865 ft 489 kts 234°
2026-05-08 14:11 -3.79855 -162.39177 39868 ft 489 kts 234°
2026-05-08 14:11 -3.83935 -162.44621 39868 ft 489 kts 234°
2026-05-08 14:12 -3.88015 -162.50067 39865 ft 489 kts 234°
2026-05-08 14:12 -3.92099 -162.55519 39867 ft 489 kts 234°
2026-05-08 14:13 -3.96178 -162.60966 39867 ft 489 kts 234°
2026-05-08 14:13 -4.00258 -162.66415 39867 ft 489 kts 234°
2026-05-08 14:14 -4.04316 -162.71835 39867 ft 489 kts 235°
2026-05-08 14:14 -4.08395 -162.77284 39867 ft 489 kts 234°
2026-05-08 14:15 -4.12474 -162.82734 39867 ft 489 kts 235°
2026-05-08 14:15 -4.16552 -162.88186 39867 ft 489 kts 234°
2026-05-08 14:16 -4.20631 -162.93638 39867 ft 489 kts 235°
2026-05-08 14:16 -4.24712 -162.99095 39871 ft 488 kts 234°
2026-05-08 14:17 -4.28784 -163.04541 39872 ft 488 kts 234°
2026-05-08 14:17 -4.32828 -163.09951 39873 ft 488 kts 234°
2026-05-08 14:18 -4.36904 -163.15403 39872 ft 488 kts 234°
2026-05-08 14:18 -4.40972 -163.20849 39873 ft 488 kts 235°
2026-05-08 14:19 -4.45036 -163.26288 39876 ft 487 kts 234°
2026-05-08 14:19 -4.49098 -163.31725 39874 ft 487 kts 234°
2026-05-08 14:20 -4.53151 -163.37153 39876 ft 487 kts 234°
2026-05-08 14:20 -4.57207 -163.42583 39875 ft 487 kts 234°
2026-05-08 14:21 -4.61266 -163.48019 39875 ft 486 kts 234°
2026-05-08 14:21 -4.65324 -163.53456 39875 ft 486 kts 234°
2026-05-08 14:22 -4.69350 -163.58851 39878 ft 486 kts 234°
2026-05-08 14:22 -4.73411 -163.64295 39879 ft 486 kts 234°
2026-05-08 14:23 -4.77462 -163.69728 39876 ft 486 kts 234°
2026-05-08 14:23 -4.81510 -163.75155 39875 ft 486 kts 235°
2026-05-08 14:24 -4.84876 -163.79671 39879 ft 486 kts 234°
2026-05-08 14:24 -4.88920 -163.85096 39879 ft 486 kts 234°
2026-05-08 14:25 -4.92964 -163.90522 39879 ft 486 kts 235°
2026-05-08 14:25 -4.97011 -163.95955 39871 ft 486 kts 234°
2026-05-08 14:26 -5.01054 -164.01383 39872 ft 486 kts 234°
2026-05-08 14:26 -5.05131 -164.06780 39873 ft 486 kts 234°
2026-05-08 14:27 -5.09209 -164.12139 39876 ft 486 kts 234°
2026-05-08 14:27 -5.13304 -164.17532 39876 ft 486 kts 234°
2026-05-08 14:28 -5.17395 -164.22931 39875 ft 486 kts 234°
2026-05-08 14:28 -5.21484 -164.28334 39875 ft 486 kts 234°
2026-05-08 14:29 -5.25577 -164.33744 39874 ft 486 kts 234°
2026-05-08 14:29 -5.29675 -164.39161 39872 ft 486 kts 234°
2026-05-08 14:30 -5.33736 -164.44530 39874 ft 486 kts 234°
2026-05-08 14:30 -5.37823 -164.49935 39876 ft 486 kts 234°
2026-05-08 14:31 -5.41914 -164.55347 39875 ft 486 kts 234°
2026-05-08 14:31 -5.46001 -164.60752 39873 ft 486 kts 234°
2026-05-08 14:32 -5.52129 -164.68863 39873 ft 486 kts 234°
2026-05-08 14:32 -5.56215 -164.74273 39873 ft 485 kts 234°
2026-05-08 14:33 -5.60294 -164.79674 39873 ft 485 kts 234°
2026-05-08 14:33 -5.64376 -164.85081 39873 ft 485 kts 234°
2026-05-08 14:34 -5.68424 -164.90445 39873 ft 485 kts 234°
2026-05-08 14:34 -5.72504 -164.95852 39873 ft 485 kts 234°
2026-05-08 14:35 -5.76584 -165.01261 39873 ft 485 kts 234°
2026-05-08 14:35 -5.80655 -165.06659 39873 ft 485 kts 234°
2026-05-08 14:36 -5.84734 -165.12070 39873 ft 485 kts 234°
2026-05-08 14:36 -5.88786 -165.17445 39873 ft 485 kts 234°
2026-05-08 14:37 -5.92857 -165.22849 39871 ft 485 kts 234°
2026-05-08 14:37 -5.96932 -165.28259 39871 ft 485 kts 234°
2026-05-08 14:38 -6.01007 -165.33669 39872 ft 485 kts 234°
2026-05-08 14:38 -6.05073 -165.39071 39876 ft 485 kts 234°
2026-05-08 14:39 -6.09139 -165.44472 39876 ft 485 kts 234°
2026-05-08 14:39 -6.13209 -165.49880 39870 ft 485 kts 234°
2026-05-08 14:40 -6.17257 -165.55261 39871 ft 485 kts 234°
2026-05-08 14:40 -6.21329 -165.60675 39869 ft 485 kts 234°
2026-05-08 14:41 -6.25399 -165.66089 39871 ft 485 kts 234°
2026-05-08 14:41 -6.29471 -165.71508 39871 ft 485 kts 234°
2026-05-08 14:42 -6.33536 -165.76919 39871 ft 485 kts 234°
2026-05-08 14:42 -6.37574 -165.82293 39871 ft 485 kts 234°
2026-05-08 14:43 -6.41634 -165.87701 39873 ft 484 kts 234°
2026-05-08 14:43 -6.45702 -165.93122 39870 ft 484 kts 234°
2026-05-08 14:44 -6.49766 -165.98536 39873 ft 484 kts 234°
2026-05-08 14:44 -6.53828 -166.03952 39872 ft 484 kts 234°
2026-05-08 14:45 -6.57883 -166.09358 39873 ft 484 kts 234°
2026-05-08 14:45 -6.61919 -166.14739 39872 ft 485 kts 234°
2026-05-08 14:46 -6.65975 -166.20150 39876 ft 483 kts 234°
2026-05-08 14:46 -6.70021 -166.25549 39876 ft 483 kts 234°
2026-05-08 14:47 -6.74070 -166.30954 39876 ft 483 kts 234°
2026-05-08 14:47 -6.78115 -166.36355 39872 ft 483 kts 234°
2026-05-08 14:48 -6.82137 -166.41727 39875 ft 483 kts 234°
2026-05-08 14:48 -6.86182 -166.47133 39876 ft 483 kts 234°
2026-05-08 14:49 -6.90233 -166.52547 39874 ft 483 kts 234°
2026-05-08 14:49 -6.94252 -166.57921 39874 ft 484 kts 234°
2026-05-08 14:50 -6.98304 -166.63341 39875 ft 484 kts 234°
2026-05-08 14:50 -7.02355 -166.68761 39879 ft 484 kts 234°
2026-05-08 14:51 -7.06401 -166.74176 39879 ft 484 kts 234°
2026-05-08 14:51 -7.10450 -166.79597 39879 ft 484 kts 234°
2026-05-08 14:52 -7.16522 -166.87729 39878 ft 484 kts 234°
2026-05-08 14:53 -7.20533 -166.93102 39875 ft 482 kts 234°
2026-05-08 14:53 -7.24571 -166.98516 39876 ft 482 kts 234°
2026-05-08 14:54 -7.28599 -167.03916 39877 ft 482 kts 234°
2026-05-08 14:54 -7.32627 -167.09319 39877 ft 482 kts 234°
2026-05-08 14:55 -7.36631 -167.14691 39878 ft 482 kts 234°
2026-05-08 14:55 -7.40656 -167.20094 39881 ft 482 kts 234°
2026-05-08 14:56 -7.44677 -167.25492 39876 ft 481 kts 234°
2026-05-08 14:56 -7.48679 -167.30868 39878 ft 479 kts 234°
2026-05-08 14:57 -7.52678 -167.36240 39879 ft 478 kts 234°
2026-05-08 14:57 -7.56671 -167.41608 39881 ft 479 kts 234°
2026-05-08 14:58 -7.60668 -167.46982 39882 ft 479 kts 234°
2026-05-08 14:58 -7.64638 -167.52322 39878 ft 478 kts 234°
2026-05-08 14:59 -7.68629 -167.57691 39878 ft 478 kts 234°
2026-05-08 14:59 -7.74615 -167.65749 39883 ft 477 kts 234°
2026-05-08 15:00 -7.78595 -167.71109 39880 ft 477 kts 234°
2026-05-08 15:00 -7.82560 -167.76450 39880 ft 474 kts 234°
2026-05-08 15:01 -7.86504 -167.81764 39880 ft 473 kts 234°
2026-05-08 15:01 -7.90416 -167.87039 39882 ft 473 kts 234°
2026-05-08 15:02 -7.94359 -167.92357 39881 ft 473 kts 234°
2026-05-08 15:02 -7.98297 -167.97671 39880 ft 473 kts 234°
2026-05-08 15:03 -8.02176 -168.03022 39882 ft 472 kts 237°
2026-05-08 15:03 -8.05769 -168.08571 39881 ft 472 kts 238°
2026-05-08 15:04 -8.09312 -168.14143 39883 ft 472 kts 238°
2026-05-08 15:04 -8.12895 -168.19689 39884 ft 472 kts 238°
2026-05-08 15:05 -8.16504 -168.25219 39884 ft 472 kts 238°
2026-05-08 15:05 -8.20115 -168.30740 39882 ft 470 kts 238°
2026-05-08 15:06 -8.23716 -168.36252 39884 ft 469 kts 238°
2026-05-08 15:06 -8.27309 -168.41757 39882 ft 469 kts 238°
2026-05-08 15:07 -8.30885 -168.47238 39879 ft 469 kts 238°
2026-05-08 15:07 -8.34475 -168.52745 39881 ft 469 kts 238°
2026-05-08 15:08 -8.37460 -168.57324 39884 ft 469 kts 238°
2026-05-08 15:08 -8.41658 -168.63767 39883 ft 469 kts 238°
2026-05-08 15:09 -8.45247 -168.69277 39885 ft 469 kts 238°
2026-05-08 15:09 -8.48838 -168.74793 39884 ft 470 kts 238°
2026-05-08 15:10 -8.52412 -168.80285 39884 ft 470 kts 238°
2026-05-08 15:10 -8.56009 -168.85814 39891 ft 470 kts 238°
2026-05-08 15:11 -8.59592 -168.91322 39884 ft 468 kts 238°
2026-05-08 15:11 -8.63165 -168.96819 39884 ft 467 kts 238°
2026-05-08 15:12 -8.66731 -169.02308 39884 ft 467 kts 238°
2026-05-08 15:12 -8.70296 -169.07799 39885 ft 467 kts 238°
2026-05-08 15:13 -8.73834 -169.13248 39887 ft 466 kts 238°
2026-05-08 15:13 -8.77387 -169.18722 39885 ft 466 kts 238°
2026-05-08 15:14 -8.80938 -169.24197 39885 ft 466 kts 238°
2026-05-08 15:14 -8.83890 -169.28750 39887 ft 466 kts 238°
2026-05-08 15:15 -8.87436 -169.34221 39887 ft 466 kts 238°
2026-05-08 15:15 -8.90985 -169.39699 39887 ft 465 kts 238°
2026-05-08 15:16 -8.94537 -169.45182 39893 ft 465 kts 239°
2026-05-08 15:16 -8.98062 -169.50626 39891 ft 461 kts 239°
2026-05-08 15:17 -9.01568 -169.56044 39886 ft 460 kts 239°
2026-05-08 15:17 -9.05079 -169.61473 39890 ft 460 kts 239°
2026-05-08 15:18 -9.08563 -169.66862 39888 ft 460 kts 239°
2026-05-08 15:18 -9.12065 -169.72282 39896 ft 460 kts 239°
2026-05-08 15:19 -9.15567 -169.77703 39893 ft 460 kts 239°
2026-05-08 15:19 -9.19071 -169.83128 39896 ft 459 kts 239°
2026-05-08 15:20 -9.22556 -169.88527 39900 ft 458 kts 239°
2026-05-08 15:20 -9.26032 -169.93915 39901 ft 457 kts 239°
2026-05-08 15:21 -9.29514 -169.99315 39898 ft 457 kts 239°
2026-05-08 15:21 -9.32992 -170.04709 39902 ft 457 kts 239°
2026-05-08 15:22 -9.36463 -170.10097 39899 ft 456 kts 239°
2026-05-08 15:22 -9.39930 -170.15480 39903 ft 456 kts 239°
2026-05-08 15:23 -9.43402 -170.20874 39902 ft 457 kts 239°
2026-05-08 15:23 -9.46879 -170.26277 39897 ft 458 kts 239°
2026-05-08 15:24 -9.50357 -170.31685 39901 ft 458 kts 239°
2026-05-08 15:24 -9.53815 -170.37062 39894 ft 458 kts 239°
2026-05-08 15:25 -9.57290 -170.42470 39901 ft 458 kts 239°
2026-05-08 15:25 -9.60768 -170.47884 39904 ft 458 kts 239°
2026-05-08 15:26 -9.64245 -170.53299 39903 ft 458 kts 239°
2026-05-08 15:26 -9.67725 -170.58723 39898 ft 459 kts 239°
2026-05-08 15:27 -9.71191 -170.64126 39908 ft 460 kts 238°
2026-05-08 15:27 -9.74676 -170.69561 39908 ft 460 kts 238°
2026-05-08 15:28 -9.78164 -170.75003 39906 ft 460 kts 238°
2026-05-08 15:28 -9.81648 -170.80441 39902 ft 460 kts 238°
2026-05-08 15:29 -9.85130 -170.85879 39902 ft 460 kts 238°
2026-05-08 15:29 -9.88611 -170.91318 39899 ft 460 kts 238°
2026-05-08 15:30 -9.92097 -170.96768 39904 ft 460 kts 238°
2026-05-08 15:30 -9.95560 -171.02184 39907 ft 460 kts 238°
2026-05-08 15:31 -9.99045 -171.07637 39904 ft 460 kts 238°
2026-05-08 15:31 -10.02530 -171.13081 39906 ft 460 kts 238°
2026-05-08 15:32 -10.06040 -171.18520 39904 ft 460 kts 238°
2026-05-08 15:32 -10.09547 -171.23954 39908 ft 460 kts 238°
2026-05-08 15:33 -10.13035 -171.29370 39905 ft 460 kts 238°
2026-05-08 15:33 -10.16544 -171.34824 39909 ft 462 kts 238°
2026-05-08 15:34 -10.20062 -171.40296 39906 ft 462 kts 238°
2026-05-08 15:34 -10.23579 -171.45768 39903 ft 462 kts 238°
2026-05-08 15:35 -10.27067 -171.51199 39909 ft 462 kts 238°
2026-05-08 15:35 -10.30583 -171.56674 39905 ft 462 kts 238°
2026-05-08 15:36 -10.34094 -171.62144 39909 ft 462 kts 238°
2026-05-08 15:36 -10.37604 -171.67616 39910 ft 463 kts 238°
2026-05-08 15:37 -10.41121 -171.73102 39910 ft 464 kts 238°
2026-05-08 15:37 -10.44643 -171.78598 39904 ft 464 kts 238°
2026-05-08 15:38 -10.48164 -171.84096 39909 ft 464 kts 238°
2026-05-08 15:38 -10.51688 -171.89600 39910 ft 464 kts 238°
2026-05-08 15:39 -10.55207 -171.95099 39909 ft 464 kts 238°
2026-05-08 15:39 -10.58704 -172.00568 39908 ft 464 kts 238°
2026-05-08 15:40 -10.62224 -172.06075 39913 ft 464 kts 238°
2026-05-08 15:40 -10.65744 -172.11583 39917 ft 464 kts 238°
2026-05-08 15:41 -10.69258 -172.17087 39912 ft 464 kts 238°
2026-05-08 15:41 -10.72751 -172.22559 39915 ft 464 kts 238°
2026-05-08 15:42 -10.76266 -172.28069 39909 ft 464 kts 238°
2026-05-08 15:42 -10.79777 -172.33575 39916 ft 464 kts 238°
2026-05-08 15:43 -10.83291 -172.39090 39914 ft 464 kts 238°
2026-05-08 15:43 -10.86800 -172.44599 39915 ft 464 kts 238°
2026-05-08 15:44 -10.90302 -172.50099 39915 ft 463 kts 238°
2026-05-08 15:44 -10.93805 -172.55604 39914 ft 463 kts 238°
2026-05-08 15:45 -10.97311 -172.61116 39915 ft 463 kts 238°
2026-05-08 15:45 -11.00812 -172.66625 39918 ft 463 kts 238°
2026-05-08 15:46 -11.04289 -172.72098 39918 ft 463 kts 238°
2026-05-08 15:46 -11.07792 -172.77614 39914 ft 463 kts 238°
2026-05-08 15:47 -11.11286 -172.83120 39911 ft 462 kts 238°
2026-05-08 15:47 -11.14773 -172.88617 39919 ft 462 kts 238°
2026-05-08 15:48 -11.20006 -172.96873 39913 ft 462 kts 238°
2026-05-08 15:49 -11.23466 -173.02334 39915 ft 461 kts 238°
2026-05-08 15:49 -11.26936 -173.07815 39916 ft 459 kts 238°
2026-05-08 15:50 -11.30396 -173.13282 39919 ft 458 kts 238°
2026-05-08 15:50 -11.33845 -173.18736 39918 ft 458 kts 238°
2026-05-08 15:51 -11.37293 -173.24191 39912 ft 458 kts 238°
2026-05-08 15:51 -11.40739 -173.29644 39916 ft 457 kts 238°
2026-05-08 15:52 -11.44187 -173.35105 39915 ft 458 kts 238°
2026-05-08 15:52 -11.47630 -173.40561 39915 ft 457 kts 238°
2026-05-08 15:53 -11.51076 -173.46024 39917 ft 457 kts 238°
2026-05-08 15:53 -11.54494 -173.51446 39910 ft 458 kts 238°
2026-05-08 15:54 -11.57939 -173.56912 39915 ft 457 kts 238°
2026-05-08 15:54 -11.61377 -173.62372 39913 ft 457 kts 238°
2026-05-08 15:55 -11.64815 -173.67834 39910 ft 458 kts 238°
2026-05-08 15:55 -11.69972 -173.76033 39913 ft 458 kts 238°
2026-05-08 15:56 -11.73409 -173.81500 39916 ft 458 kts 238°
2026-05-08 15:56 -11.76848 -173.86975 39916 ft 458 kts 238°
2026-05-08 15:57 -11.80263 -173.92414 39904 ft 458 kts 238°
2026-05-08 15:57 -11.83704 -173.97898 39912 ft 459 kts 238°
2026-05-08 15:58 -11.87158 -174.03386 39915 ft 460 kts 237°
2026-05-08 15:58 -11.90658 -174.08859 39910 ft 460 kts 237°
2026-05-08 15:59 -11.94161 -174.14329 39913 ft 460 kts 237°
2026-05-08 15:59 -11.97656 -174.19805 39907 ft 460 kts 237°
2026-05-08 16:00 -12.01124 -174.25248 39917 ft 461 kts 237°
2026-05-08 16:00 -12.04632 -174.30760 39918 ft 462 kts 237°
2026-05-08 16:01 -12.08144 -174.36279 39919 ft 463 kts 237°
2026-05-08 16:01 -12.11654 -174.41798 39913 ft 463 kts 237°
2026-05-08 16:02 -12.14575 -174.46395 39912 ft 463 kts 237°
2026-05-08 16:02 -12.18651 -174.52812 39919 ft 463 kts 237°
2026-05-08 16:03 -12.21591 -174.57442 39911 ft 463 kts 237°
2026-05-08 16:03 -12.25093 -174.62961 39920 ft 463 kts 237°
2026-05-08 16:04 -12.28602 -174.68495 39910 ft 463 kts 237°
2026-05-08 16:04 -12.32091 -174.74000 39914 ft 464 kts 237°
2026-05-08 16:05 -12.35602 -174.79544 39928 ft 464 kts 237°
2026-05-08 16:05 -12.39111 -174.85085 39917 ft 464 kts 238°
2026-05-08 16:06 -12.42614 -174.90623 39914 ft 463 kts 238°
2026-05-08 16:06 -12.46123 -174.96173 39915 ft 463 kts 238°
2026-05-08 16:07 -12.49623 -175.01712 39923 ft 463 kts 238°
2026-05-08 16:07 -12.53099 -175.07216 39919 ft 463 kts 237°
2026-05-08 16:08 -12.56600 -175.12763 39915 ft 463 kts 238°
2026-05-08 16:08 -12.60095 -175.18304 39917 ft 463 kts 238°
2026-05-08 16:09 -12.63589 -175.23847 39920 ft 463 kts 238°
2026-05-08 16:09 -12.67083 -175.29391 39920 ft 463 kts 238°
2026-05-08 16:10 -12.70578 -175.34943 39923 ft 463 kts 238°
2026-05-08 16:10 -12.74073 -175.40496 39935 ft 463 kts 237°
2026-05-08 16:11 -12.77547 -175.46021 39925 ft 460 kts 237°
2026-05-08 16:11 -12.80990 -175.51500 39921 ft 460 kts 237°
2026-05-08 16:12 -12.84474 -175.57046 39923 ft 460 kts 237°
2026-05-08 16:12 -12.87911 -175.62521 39924 ft 460 kts 237°
2026-05-08 16:13 -12.91374 -175.68040 39927 ft 460 kts 237°
2026-05-08 16:13 -12.94831 -175.73555 39920 ft 460 kts 237°
2026-05-08 16:14 -12.98291 -175.79077 39923 ft 460 kts 237°
2026-05-08 16:14 -13.01751 -175.84601 39921 ft 460 kts 237°
2026-05-08 16:15 -13.05186 -175.90090 39929 ft 460 kts 237°
2026-05-08 16:15 -13.08642 -175.95616 39929 ft 460 kts 237°
2026-05-08 16:16 -13.12095 -176.01142 39933 ft 459 kts 237°
2026-05-08 16:16 -13.15536 -176.06649 39932 ft 457 kts 237°
2026-05-08 16:17 -13.18385 -176.11212 39924 ft 457 kts 237°
2026-05-08 16:17 -13.22372 -176.17604 39936 ft 457 kts 237°
2026-05-08 16:18 -13.25869 -176.23059 39934 ft 458 kts 234°
2026-05-08 16:18 -13.29773 -176.28222 39932 ft 458 kts 232°
2026-05-08 16:19 -13.33749 -176.33332 39935 ft 458 kts 232°
2026-05-08 16:19 -13.37672 -176.38496 39929 ft 458 kts 233°
2026-05-08 16:20 -13.41552 -176.43685 39938 ft 458 kts 233°
2026-05-08 16:20 -13.45401 -176.48854 39938 ft 458 kts 233°
2026-05-08 16:21 -13.49269 -176.54050 39925 ft 457 kts 233°
2026-05-08 16:21 -13.53127 -176.59229 39931 ft 456 kts 233°
2026-05-08 16:22 -13.56988 -176.64415 39937 ft 456 kts 233°
2026-05-08 16:22 -13.60845 -176.69598 39942 ft 456 kts 233°
2026-05-08 16:23 -13.64701 -176.74783 39942 ft 456 kts 233°
2026-05-08 16:23 -13.68560 -176.79975 39928 ft 456 kts 233°
2026-05-08 16:24 -13.72413 -176.85163 39942 ft 456 kts 233°
2026-05-08 16:24 -13.76266 -176.90354 39942 ft 456 kts 233°
2026-05-08 16:25 -13.80096 -176.95517 39938 ft 456 kts 233°
2026-05-08 16:25 -13.83952 -177.00718 39949 ft 457 kts 233°
2026-05-08 16:26 -13.87807 -177.05921 39943 ft 457 kts 233°
2026-05-08 16:26 -13.91665 -177.11131 39951 ft 456 kts 233°
2026-05-08 16:27 -13.95507 -177.16324 39939 ft 456 kts 233°
2026-05-08 16:27 -13.99357 -177.21530 39948 ft 456 kts 233°
2026-05-08 16:28 -14.03176 -177.26697 39941 ft 456 kts 233°
2026-05-08 16:28 -14.07046 -177.31936 39954 ft 456 kts 233°
2026-05-08 16:29 -14.10864 -177.37109 39945 ft 457 kts 233°
2026-05-08 16:29 -14.14707 -177.42319 39944 ft 457 kts 233°
2026-05-08 16:30 -14.18550 -177.47531 39954 ft 457 kts 233°
2026-05-08 16:30 -14.22390 -177.52743 39946 ft 456 kts 233°
2026-05-08 16:31 -14.26223 -177.57949 39943 ft 455 kts 233°
2026-05-08 16:31 -14.30048 -177.63148 39943 ft 455 kts 233°
2026-05-08 16:32 -14.33876 -177.68354 39944 ft 455 kts 233°
2026-05-08 16:32 -14.37675 -177.73523 39948 ft 455 kts 233°
2026-05-08 16:33 -14.41502 -177.78734 39949 ft 456 kts 233°
2026-05-08 16:33 -14.45351 -177.83979 39952 ft 456 kts 233°
2026-05-08 16:34 -14.49158 -177.89168 39953 ft 456 kts 233°
2026-05-08 16:34 -14.52987 -177.94393 39959 ft 456 kts 233°
2026-05-08 16:35 -14.56808 -177.99608 39946 ft 456 kts 233°
2026-05-08 16:35 -14.60640 -178.04843 39949 ft 456 kts 233°
2026-05-08 16:36 -14.64463 -178.10069 39960 ft 456 kts 233°
2026-05-08 16:36 -14.68290 -178.15303 39953 ft 457 kts 233°
2026-05-08 16:37 -14.72119 -178.20545 39961 ft 457 kts 233°
2026-05-08 16:37 -14.75952 -178.25794 39962 ft 457 kts 233°
2026-05-08 16:38 -14.79754 -178.31005 39957 ft 457 kts 233°
2026-05-08 16:38 -14.83580 -178.36253 39958 ft 457 kts 233°
2026-05-08 16:39 -14.87410 -178.41508 39953 ft 457 kts 233°
2026-05-08 16:39 -14.91234 -178.46760 39958 ft 457 kts 233°
2026-05-08 16:40 -14.95059 -178.52015 39965 ft 458 kts 234°
2026-05-08 16:40 -14.98885 -178.57276 39962 ft 458 kts 234°
2026-05-08 16:41 -15.02699 -178.62547 39961 ft 458 kts 234°
2026-05-08 16:42 -15.08378 -178.70478 39966 ft 457 kts 234°
2026-05-08 16:42 -15.12170 -178.75777 39960 ft 457 kts 234°
2026-05-08 16:43 -15.15959 -178.81069 39959 ft 457 kts 234°
2026-05-08 16:43 -15.19727 -178.86333 39963 ft 458 kts 234°
2026-05-08 16:44 -15.23524 -178.91642 39965 ft 459 kts 234°
2026-05-08 16:44 -15.27321 -178.96955 39961 ft 459 kts 234°
2026-05-08 16:45 -15.31121 -179.02281 39964 ft 458 kts 234°
2026-05-08 16:45 -15.34887 -179.07552 39964 ft 457 kts 234°
2026-05-08 16:46 -15.38699 -179.12884 39962 ft 457 kts 234°
2026-05-08 16:46 -15.42463 -179.18155 39957 ft 457 kts 234°
2026-05-08 16:47 -15.46249 -179.23465 39964 ft 457 kts 234°
2026-05-08 16:47 -15.50034 -179.28777 39959 ft 459 kts 234°
2026-05-08 16:48 -15.53825 -179.34101 39968 ft 459 kts 234°
2026-05-08 16:48 -15.57617 -179.39430 39963 ft 459 kts 234°
2026-05-08 16:49 -15.61407 -179.44760 39966 ft 459 kts 234°
2026-05-08 16:49 -15.64557 -179.49193 39968 ft 459 kts 234°
2026-05-08 16:50 -15.68956 -179.55388 39970 ft 457 kts 234°
2026-05-08 16:50 -15.72111 -179.59835 39962 ft 457 kts 234°
2026-05-08 16:51 -15.75879 -179.65149 39964 ft 457 kts 234°
2026-05-08 16:51 -15.79630 -179.70442 39960 ft 457 kts 234°
2026-05-08 16:52 -15.83397 -179.75761 39960 ft 457 kts 234°
2026-05-08 16:52 -15.87166 -179.81088 39968 ft 457 kts 234°
2026-05-08 16:53 -15.92810 -179.89072 39974 ft 457 kts 234°
2026-05-08 16:53 -15.96571 -179.94397 39964 ft 457 kts 234°
2026-05-08 16:54 -16.00315 -179.99701 39975 ft 457 kts 234°
2026-05-08 16:54 -16.04070 179.94976 39979 ft 456 kts 234°
2026-05-08 16:55 -16.07825 179.89648 39968 ft 456 kts 234°
2026-05-08 16:55 -16.11579 179.84318 39966 ft 456 kts 234°
2026-05-08 16:56 -16.15306 179.79022 39981 ft 456 kts 234°
2026-05-08 16:56 -16.19053 179.73694 39968 ft 456 kts 234°
2026-05-08 16:57 -16.22802 179.68360 39984 ft 456 kts 234°
2026-05-08 16:57 -16.26546 179.63028 39985 ft 456 kts 234°
2026-05-08 16:58 -16.30290 179.57693 39982 ft 457 kts 234°
2026-05-08 16:58 -16.34037 179.52349 39977 ft 457 kts 234°
2026-05-08 16:59 -16.37779 179.47008 39981 ft 455 kts 234°
2026-05-08 16:59 -16.41507 179.41682 39981 ft 455 kts 234°
2026-05-08 17:00 -16.45211 179.36390 39980 ft 454 kts 234°
2026-05-08 17:00 -16.48931 179.31068 39988 ft 454 kts 234°
2026-05-08 17:01 -16.52650 179.25745 39984 ft 454 kts 235°
2026-05-08 17:01 -16.56374 179.20410 39988 ft 455 kts 234°
2026-05-08 17:02 -16.60098 179.15070 39984 ft 455 kts 234°
2026-05-08 17:02 -16.63827 179.09720 39982 ft 455 kts 234°
2026-05-08 17:03 -16.67551 179.04374 39984 ft 456 kts 234°
2026-05-08 17:03 -16.71252 178.99057 39979 ft 455 kts 235°
2026-05-08 17:04 -16.74956 178.93731 39981 ft 453 kts 235°
2026-05-08 17:04 -16.78657 178.88406 39979 ft 453 kts 235°
2026-05-08 17:05 -16.82093 178.82890 39984 ft 453 kts 239°
2026-05-08 17:05 -16.85306 178.77219 39979 ft 454 kts 240°
2026-05-08 17:06 -16.88547 178.71568 39980 ft 454 kts 239°
2026-05-08 17:06 -16.91835 178.65947 39982 ft 453 kts 239°
2026-05-08 17:07 -16.95139 178.60335 39980 ft 453 kts 239°
2026-05-08 17:07 -16.98420 178.54759 39980 ft 453 kts 239°
2026-05-08 17:08 -17.01723 178.49136 39980 ft 454 kts 239°
2026-05-08 17:08 -17.05020 178.43516 39981 ft 454 kts 239°
2026-05-08 17:09 -17.08316 178.37894 39980 ft 452 kts 239°
2026-05-08 17:09 -17.11459 178.32524 39980 ft 451 kts 239°
2026-05-08 17:10 -17.12806 178.30223 39979 ft 451 kts 239°
2026-05-08 17:11 -17.12824 178.30192 40750 ft 451 kts 239°
2026-05-08 17:11 -17.14455 178.27405 39935 ft 454 kts 239°
2026-05-08 17:12 -17.16571 178.23786 39976 ft 455 kts 239°
2026-05-08 17:14 -17.18659 178.20216 39985 ft 452 kts 239°
2026-05-08 17:15 -17.21943 178.14594 39985 ft 451 kts 239°
2026-05-08 17:15 -17.25198 178.09017 39907 ft 448 kts 239°
2026-05-08 17:16 -17.26798 178.06273 39381 ft 445 kts 239°
2026-05-08 17:16 -17.28423 178.03487 38545 ft 449 kts 238°
2026-05-08 17:16 -17.30039 178.00719 37339 ft 448 kts 238°
2026-05-08 17:16 -17.31671 177.97924 35976 ft 449 kts 238°
2026-05-08 17:17 -17.33285 177.95151 34666 ft 449 kts 237°
2026-05-08 17:17 -17.34927 177.92327 33188 ft 449 kts 237°
2026-05-08 17:17 -17.36556 177.89525 31488 ft 453 kts 237°
2026-05-08 17:17 -17.38201 177.86696 29677 ft 459 kts 237°
2026-05-08 17:18 -17.39868 177.83828 27689 ft 465 kts 237°
2026-05-08 17:18 -17.41542 177.80945 25967 ft 465 kts 237°
2026-05-08 17:18 -17.43230 177.78035 24424 ft 463 kts 236°
2026-05-08 17:18 -17.44886 177.75178 22925 ft 458 kts 236°
2026-05-08 17:19 -17.46520 177.72361 21354 ft 453 kts 237°
2026-05-08 17:19 -17.48154 177.69542 19858 ft 447 kts 237°
2026-05-08 17:19 -17.49744 177.66801 18810 ft 435 kts 237°
2026-05-08 17:19 -17.51264 177.64175 18273 ft 410 kts 237°
2026-05-08 17:20 -17.52707 177.61679 17755 ft 386 kts 237°
2026-05-08 17:20 -17.54044 177.59367 17317 ft 364 kts 237°
2026-05-08 17:20 -17.55329 177.57146 16886 ft 344 kts 237°
2026-05-08 17:20 -17.56546 177.55046 16251 ft 334 kts 237°
2026-05-08 17:21 -17.57732 177.52998 15513 ft 328 kts 237°
2026-05-08 17:21 -17.58917 177.50954 14774 ft 324 kts 237°
2026-05-08 17:21 -17.60069 177.48966 14040 ft 320 kts 237°
2026-05-08 17:21 -17.61225 177.46969 13245 ft 316 kts 238°
2026-05-08 17:22 -17.62351 177.45022 12466 ft 313 kts 238°
2026-05-08 17:22 -17.63478 177.43071 11696 ft 309 kts 238°
2026-05-08 17:22 -17.64574 177.41174 10957 ft 305 kts 238°
2026-05-08 17:22 -17.65671 177.39274 10232 ft 301 kts 238°
2026-05-08 17:23 -17.66751 177.37412 9511 ft 296 kts 238°
2026-05-08 17:23 -17.67810 177.35594 8780 ft 292 kts 238°
2026-05-08 17:23 -17.68877 177.33814 8055 ft 286 kts 234°
2026-05-08 17:23 -17.70277 177.32356 7342 ft 281 kts 218°
2026-05-08 17:24 -17.71816 177.31106 6644 ft 277 kts 218°
2026-05-08 17:24 -17.73341 177.29904 5932 ft 274 kts 218°
2026-05-08 17:24 -17.74878 177.28714 5214 ft 280 kts 218°
2026-05-08 17:24 -17.76490 177.27488 4520 ft 288 kts 218°
2026-05-08 17:25 -17.78120 177.26251 3862 ft 292 kts 217°
2026-05-08 17:25 -17.79726 177.24998 3481 ft 286 kts 218°
2026-05-08 17:25 -17.81286 177.23767 3396 ft 269 kts 217°
2026-05-08 17:25 -17.82740 177.22610 3390 ft 263 kts 217°
2026-05-08 17:26 -17.84206 177.21440 3385 ft 263 kts 218°
2026-05-08 17:26 -17.85660 177.20284 3384 ft 263 kts 218°
2026-05-08 17:26 -17.87116 177.19129 3380 ft 263 kts 217°
2026-05-08 17:26 -17.88714 177.18172 3379 ft 264 kts 204°
2026-05-08 17:27 -17.90463 177.17616 3379 ft 265 kts 189°
2026-05-08 17:27 -17.92283 177.17699 3380 ft 266 kts 165°
2026-05-08 17:27 -17.93885 177.18636 3380 ft 268 kts 136°
2026-05-08 17:27 -17.94794 177.20331 3387 ft 268 kts 103°
2026-05-08 17:28 -17.94778 177.22265 3384 ft 269 kts 75°
2026-05-08 17:28 -17.94171 177.24120 3383 ft 271 kts 69°
2026-05-08 17:28 -17.93535 177.25999 3386 ft 270 kts 71°
2026-05-08 17:28 -17.92993 177.27806 3387 ft 254 kts 73°
2026-05-08 17:29 -17.92518 177.29530 3398 ft 235 kts 74°
2026-05-08 17:29 -17.92066 177.31101 3392 ft 218 kts 68°
2026-05-08 17:29 -17.91248 177.32358 3393 ft 203 kts 40°
2026-05-08 17:29 -17.90145 177.33258 3399 ft 201 kts 34°
2026-05-08 17:30 -17.89037 177.34074 3392 ft 187 kts 34°
2026-05-08 17:30 -17.87990 177.34843 3333 ft 180 kts 34°
2026-05-08 17:30 -17.86980 177.35583 3126 ft 174 kts 34°
2026-05-08 17:30 -17.86005 177.36292 2857 ft 171 kts 34°
2026-05-08 17:31 -17.85008 177.37019 2496 ft 175 kts 35°
2026-05-08 17:31 -17.84020 177.37754 2157 ft 174 kts 37°
2026-05-08 17:31 -17.83059 177.38486 1800 ft 170 kts 37°
2026-05-08 17:31 -17.82107 177.39210 1444 ft 166 kts 37°
2026-05-08 17:32 -17.81199 177.39894 1116 ft 159 kts 37°
2026-05-08 17:32 -17.80321 177.40555 867 ft 149 kts 37°
2026-05-08 17:32 -17.79489 177.41181 672 ft 143 kts 36°
2026-05-08 17:32 -17.78698 177.41776 458 ft 137 kts 37°
2026-05-08 17:33 -17.77923 177.42374 254 ft 138 kts 38°
2026-05-08 17:33 -17.77176 177.42974 98 ft 137 kts 39°
2026-05-08 17:33 -17.76443 177.43575 49 ft 122 kts 38°
2026-05-08 17:33 -17.75863 177.44042 49 ft 91 kts 37°
2026-05-08 17:34 -17.75445 177.44378 47 ft 60 kts 37°
2026-05-08 17:34 -17.75186 177.44587 46 ft 34 kts 37°
2026-05-08 17:34 -17.75119 177.44646 48 ft 8 kts 54°
2026-05-08 17:34 -17.75116 177.44712 47 ft 11 kts 101°
2026-05-08 17:35 -17.75125 177.44751 49 ft 0 kts 103°
2026-05-08 17:40 -17.75125 177.44753 49 ft 2 kts 102°
2026-05-08 17:40 -17.75136 177.44809 52 ft 13 kts 104°
2026-05-08 17:41 -17.75163 177.44913 48 ft 16 kts 105°
2026-05-08 17:41 -17.75177 177.44969 48 ft 4 kts 104°
2026-05-08 17:41 -17.75184 177.44999 49 ft 0 kts 104°
2026-05-08 17:41 -17.75184 177.45000 49 ft 2 kts 104°
2026-05-08 17:42 -17.75185 177.45003 53 ft 0 kts 104°